M I D A S
Marine Information and Data Acquisition System
Tripno 1995 of the Zeeleeuw from 2010-10-15 06:34:42 to 2010-10-15 12:35:42
Back to CruiseResearch ActivitiesStationsMapUnderway DataData graphs

EquipmentUnitsComment
TimeDGPSUTC
LatitudeDGPSDM.mWGS84
LongitudeDGPSDM.mWGS84
TemperatureSBE03/SBE38deg celciusITS90
ConductivitySBE21S/mITS90
SalinitySBE21 Practical Salinity Units
ChlorophylAChelsea fluorimeterg/lCalibrated in Aceton
Missing or incorrect values are displayed as -999
Sea surface data collected by the RV Zeeleeuw from 2010-10-15 05:58:29 to 2010-10-15 13:40:07
                                                                                    Next 1000 lines
Time Latitude Longitude Temperature Conductivity Salinity ChlorophylA
2010-10-15 05:58:39 51°13.663 2°55.96 20.5342 0.064954 0.342906 -0.687152
2010-10-15 05:58:44 51°13.664 2°55.96 20.5298 0.064954 0.342911 -0.687152
2010-10-15 05:58:49 51°13.664 2°55.96 20.5298 0.064954 0.342911 -0.721976
2010-10-15 05:58:54 51°13.664 2°55.96 20.534 0.064954 0.342906 -0.687152
2010-10-15 05:58:59 51°13.664 2°55.96 20.5363 0.064954 0.342906 -0.687152
2010-10-15 05:59:04 51°13.664 2°55.96 20.5336 0.064954 0.342906 -0.687152
2010-10-15 05:59:09 51°13.664 2°55.96 20.5312 0.064954 0.342906 -0.687152
2010-10-15 05:59:14 51°13.664 2°55.96 20.5257 0.064954 0.342906 -0.687152
2010-10-15 05:59:19 51°13.664 2°55.96 20.5254 0.064954 0.342901 -0.721976
2010-10-15 05:59:24 51°13.664 2°55.96 20.5268 0.064954 0.342901 -0.687152
2010-10-15 05:59:29 51°13.664 2°55.96 20.526 0.064954 0.342901 -0.687152
2010-10-15 05:59:34 51°13.664 2°55.96 20.5252 0.064954 0.342901 -0.687152
2010-10-15 05:59:39 51°13.664 2°55.96 20.5315 0.064954 0.342901 -0.687152
2010-10-15 05:59:44 51°13.665 2°55.96 20.5312 0.064954 0.342896 -0.687152
2010-10-15 05:59:49 51°13.664 2°55.96 20.5355 0.064954 0.342896 -0.721976
2010-10-15 05:59:54 51°13.664 2°55.96 20.5354 0.064954 0.342896 -0.721976
2010-10-15 05:59:59 51°13.664 2°55.96 20.5305 0.064954 0.342896 -0.652328
2010-10-15 06:00:04 51°13.664 2°55.959 20.5311 0.064954 0.342896 -0.652328
2010-10-15 06:00:09 51°13.664 2°55.96 20.5354 0.064954 0.342896 -0.687152
2010-10-15 06:00:14 51°13.664 2°55.96 20.5356 0.064954 0.34289 -0.687152
2010-10-15 06:00:19 51°13.664 2°55.96 20.5331 0.064954 0.34289 -0.721976
2010-10-15 06:00:24 51°13.664 2°55.96 20.5254 0.064954 0.342885 -0.721976
2010-10-15 06:00:29 51°13.664 2°55.96 20.5321 0.064954 0.342885 -0.687152
2010-10-15 06:00:34 51°13.664 2°55.96 20.5354 0.064954 0.342885 -0.687152
2010-10-15 06:00:39 51°13.664 2°55.96 20.5426 0.064954 0.342885 -0.721976
2010-10-15 06:00:44 51°13.664 2°55.96 20.5392 0.064954 0.342885 -0.687152
2010-10-15 06:00:49 51°13.664 2°55.96 20.5369 0.064954 0.342885 -0.687152
2010-10-15 06:00:54 51°13.664 2°55.96 20.5377 0.064954 0.342885 -0.687152
2010-10-15 06:00:59 51°13.664 2°55.96 20.5386 0.064954 0.342885 -0.687152
2010-10-15 06:01:04 51°13.664 2°55.96 20.5431 0.064954 0.342885 -0.687152
2010-10-15 06:01:09 51°13.664 2°55.96 20.5447 0.064954 0.34288 -0.687152
2010-10-15 06:01:14 51°13.664 2°55.961 20.5419 0.064954 0.34288 -0.687152
2010-10-15 06:01:19 51°13.664 2°55.961 20.5329 0.064954 0.342874 -0.687152
2010-10-15 06:01:24 51°13.664 2°55.961 20.5377 0.064954 0.342869 -0.687152
2010-10-15 06:01:29 51°13.663 2°55.96 20.5424 0.064954 0.342874 -0.721976
2010-10-15 06:01:34 51°13.664 2°55.96 20.5457 0.064954 0.342874 -0.721976
2010-10-15 06:01:39 51°13.664 2°55.96 20.5449 0.064954 0.342869 -0.687152
2010-10-15 06:01:44 51°13.663 2°55.96 20.5383 0.064954 0.342869 -0.721976
2010-10-15 06:01:49 51°13.663 2°55.96 20.5398 0.064954 0.342869 -0.687152
2010-10-15 06:01:54 51°13.664 2°55.96 20.5406 0.064954 0.342869 -0.721976
2010-10-15 06:01:59 51°13.664 2°55.96 20.5399 0.064954 0.342869 -0.721976
2010-10-15 06:02:04 51°13.663 2°55.96 20.5432 0.064954 0.342869 -0.721976
2010-10-15 06:02:09 51°13.664 2°55.96 20.5446 0.064954 0.342869 -0.652328
2010-10-15 06:02:14 51°13.663 2°55.96 20.5457 0.064954 0.342864 -0.721976
2010-10-15 06:02:19 51°13.663 2°55.96 20.5461 0.064954 0.342864 -0.687152
2010-10-15 06:02:24 51°13.664 2°55.961 20.5465 0.064954 0.342859 -0.687152
2010-10-15 06:02:29 51°13.664 2°55.961 20.5509 0.064954 0.342864 -0.721976
2010-10-15 06:02:34 51°13.664 2°55.961 20.5479 0.064954 0.342864 -0.721976
2010-10-15 06:02:39 51°13.664 2°55.961 20.5419 0.064954 0.342859 -0.687152
2010-10-15 06:02:44 51°13.664 2°55.961 20.5331 0.064954 0.342853 -0.687152
2010-10-15 06:02:49 51°13.664 2°55.962 20.5314 0.064954 0.342859 -0.687152
2010-10-15 06:02:54 51°13.664 2°55.961 20.5339 0.064954 0.342853 -0.687152
2010-10-15 06:02:59 51°13.663 2°55.96 20.5377 0.064954 0.342859 -0.687152
2010-10-15 06:03:04 51°13.664 2°55.96 20.5423 0.064954 0.342859 -0.687152
2010-10-15 06:03:09 51°13.664 2°55.96 20.5466 0.065058 0.343419 -0.721976
2010-10-15 06:03:14 51°13.664 2°55.96 20.5468 0.064954 0.342853 -0.687152
2010-10-15 06:03:19 51°13.663 2°55.96 20.5434 0.064954 0.342853 -0.721976
2010-10-15 06:03:24 51°13.664 2°55.959 20.5371 0.064954 0.342848 -0.721976
2010-10-15 06:03:29 51°13.663 2°55.96 20.5322 0.064954 0.342848 -0.687152
2010-10-15 06:03:34 51°13.663 2°55.96 20.5327 0.064954 0.342848 -0.687152
2010-10-15 06:03:39 51°13.663 2°55.96 20.5403 0.064954 0.342848 -0.687152
2010-10-15 06:03:44 51°13.664 2°55.96 20.5444 0.064954 0.342848 -0.687152
2010-10-15 06:03:49 51°13.663 2°55.96 20.5429 0.064954 0.342843 -0.687152
2010-10-15 06:03:54 51°13.663 2°55.96 20.5424 0.065058 0.343403 -0.687152
2010-10-15 06:03:59 51°13.663 2°55.96 20.5446 0.064954 0.342843 -0.721976
2010-10-15 06:04:04 51°13.663 2°55.96 20.5489 0.065058 0.343403 -0.687152
2010-10-15 06:04:09 51°13.663 2°55.96 20.5513 0.065058 0.343403 -0.687152
2010-10-15 06:04:14 51°13.663 2°55.961 20.5519 0.065058 0.343408 -0.652328
2010-10-15 06:04:19 51°13.663 2°55.961 20.5533 0.065058 0.343403 -0.687152
2010-10-15 06:04:24 51°13.663 2°55.96 20.5511 0.065058 0.343403 -0.687152
2010-10-15 06:04:29 51°13.663 2°55.96 20.5504 0.064954 0.342838 -0.721976
2010-10-15 06:04:34 51°13.663 2°55.96 20.5512 0.064954 0.342838 -0.721976
2010-10-15 06:04:39 51°13.663 2°55.96 20.5513 0.064954 0.342838 -0.721976
2010-10-15 06:04:44 51°13.663 2°55.96 20.5493 0.065058 0.343398 -0.687152
2010-10-15 06:04:49 51°13.663 2°55.96 20.5419 0.064954 0.342827 -0.721976
2010-10-15 06:04:54 51°13.663 2°55.96 20.5414 0.064954 0.342832 -0.687152
2010-10-15 06:04:59 51°13.663 2°55.96 20.5427 0.064954 0.342827 -0.721976
2010-10-15 06:05:04 51°13.663 2°55.96 20.5445 0.064954 0.342827 -0.721976
2010-10-15 06:05:09 51°13.663 2°55.96 20.55 0.064954 0.342827 -0.721976
2010-10-15 06:05:13 51°13.663 2°55.96 20.5536 0.065058 0.343393 -0.687152
2010-10-15 06:05:19 51°13.663 2°55.961 20.5467 0.064954 0.342827 -0.721976
2010-10-15 06:05:23 51°13.663 2°55.961 20.5403 0.064954 0.342822 -0.687152
2010-10-15 06:05:28 51°13.663 2°55.961 20.5406 0.065058 0.343387 -0.687152
2010-10-15 06:05:33 51°13.663 2°55.961 20.5392 0.065058 0.343387 -0.721976
2010-10-15 06:05:38 51°13.663 2°55.961 20.5367 0.065058 0.343387 -0.721976
2010-10-15 06:05:44 51°13.663 2°55.961 20.5336 0.065058 0.343387 -0.721976
2010-10-15 06:05:49 51°13.663 2°55.961 20.5359 0.065058 0.343382 -0.687152
2010-10-15 06:05:54 51°13.663 2°55.961 20.5497 0.065058 0.343382 -0.721976
2010-10-15 06:05:59 51°13.663 2°55.961 20.5447 0.065058 0.343377 -0.687152
2010-10-15 06:06:04 51°13.663 2°55.961 20.5467 0.065058 0.343377 -0.687152
2010-10-15 06:06:09 51°13.663 2°55.961 20.5489 0.065058 0.343377 -0.721976
2010-10-15 06:06:14 51°13.663 2°55.96 20.5508 0.065058 0.343377 -0.721976
2010-10-15 06:06:19 51°13.663 2°55.96 20.5499 0.065058 0.343377 -0.687152
2010-10-15 06:06:24 51°13.663 2°55.96 20.5488 0.065058 0.343377 -0.721976
2010-10-15 06:06:29 51°13.663 2°55.96 20.5508 0.064954 0.342811 -0.687152
2010-10-15 06:06:34 51°13.663 2°55.96 20.5541 0.064954 0.342811 -0.687152
2010-10-15 06:06:39 51°13.663 2°55.96 20.5558 0.064954 0.342806 -0.687152
2010-10-15 06:06:44 51°13.663 2°55.961 20.5513 0.065058 0.343372 -0.687152
2010-10-15 06:06:49 51°13.663 2°55.96 20.549 0.065058 0.343372 -0.721976
2010-10-15 06:06:54 51°13.663 2°55.96 20.5445 0.065058 0.343372 -0.721976
2010-10-15 06:06:59 51°13.663 2°55.96 20.5486 0.065058 0.343366 -0.721976
2010-10-15 06:07:04 51°13.663 2°55.959 20.5488 0.065058 0.343366 -0.721976
2010-10-15 06:07:09 51°13.663 2°55.96 20.5453 0.065058 0.343372 -0.721976
2010-10-15 06:07:14 51°13.663 2°55.96 20.5529 0.065058 0.343366 -0.687152
2010-10-15 06:07:19 51°13.663 2°55.959 20.5589 0.065058 0.343366 -0.721976
2010-10-15 06:07:24 51°13.663 2°55.959 20.5587 0.065058 0.343361 -0.687152
2010-10-15 06:07:29 51°13.663 2°55.959 20.5557 0.065058 0.343361 -0.652328
2010-10-15 06:07:34 51°13.663 2°55.959 20.5578 0.065058 0.343361 -0.652328
2010-10-15 06:07:39 51°13.663 2°55.959 20.5581 0.065058 0.343366 -0.687152
2010-10-15 06:07:44 51°13.663 2°55.96 20.5574 0.065058 0.343361 -0.687152
2010-10-15 06:07:49 51°13.663 2°55.96 20.5511 0.065058 0.343356 -0.687152
2010-10-15 06:07:54 51°13.663 2°55.96 20.5484 0.065058 0.343361 -0.687152
2010-10-15 06:07:59 51°13.663 2°55.96 20.5411 0.065058 0.343356 -0.721976
2010-10-15 06:08:04 51°13.663 2°55.96 20.556 0.065058 0.343356 -0.721976
2010-10-15 06:08:09 51°13.663 2°55.96 20.5606 0.065058 0.343356 -0.687152
2010-10-15 06:08:14 51°13.663 2°55.959 20.5737 0.065058 0.34335 -0.721976
2010-10-15 06:08:19 51°13.663 2°55.959 20.5769 0.065058 0.34335 -0.721976
2010-10-15 06:08:24 51°13.663 2°55.959 20.582 0.065058 0.34335 -0.721976
2010-10-15 06:08:29 51°13.663 2°55.959 20.5833 0.065058 0.34335 -0.687152
2010-10-15 06:08:34 51°13.663 2°55.959 20.577 0.065058 0.34335 -0.687152
2010-10-15 06:08:39 51°13.663 2°55.96 20.5788 0.065058 0.343345 -0.721976
2010-10-15 06:08:44 51°13.663 2°55.959 20.5728 0.065058 0.343345 -0.687152
2010-10-15 06:08:49 51°13.663 2°55.959 20.5756 0.065058 0.34335 -0.687152
2010-10-15 06:08:54 51°13.663 2°55.96 20.5785 0.065058 0.343345 -0.721976
2010-10-15 06:08:59 51°13.663 2°55.96 20.5712 0.065058 0.343345 -0.687152
2010-10-15 06:09:04 51°13.662 2°55.96 20.5746 0.065058 0.343345 -0.687152
2010-10-15 06:09:09 51°13.662 2°55.96 20.5741 0.065058 0.34334 -0.652328
2010-10-15 06:09:14 51°13.662 2°55.96 20.5676 0.065058 0.343345 -0.687152
2010-10-15 06:09:19 51°13.662 2°55.959 20.5543 0.065058 0.34334 -0.687152
2010-10-15 06:09:24 51°13.663 2°55.959 20.5576 0.065058 0.34334 -0.687152
2010-10-15 06:09:29 51°13.663 2°55.959 20.5703 0.065058 0.34334 -0.721976
2010-10-15 06:09:34 51°13.663 2°55.959 20.5699 0.065058 0.34334 -0.721976
2010-10-15 06:09:39 51°13.663 2°55.96 20.5709 0.065058 0.34334 -0.687152
2010-10-15 06:09:44 51°13.663 2°55.96 20.5685 0.065058 0.34334 -0.687152
2010-10-15 06:09:49 51°13.663 2°55.96 20.5682 0.065058 0.343329 -0.687152
2010-10-15 06:09:54 51°13.663 2°55.96 20.5607 0.065058 0.343335 -0.687152
2010-10-15 06:09:59 51°13.663 2°55.961 20.565 0.065058 0.343335 -0.721976
2010-10-15 06:10:04 51°13.663 2°55.961 20.5713 0.065058 0.343329 -0.687152
2010-10-15 06:10:09 51°13.662 2°55.961 20.5703 0.065058 0.343329 -0.687152
2010-10-15 06:10:14 51°13.663 2°55.961 20.5635 0.065058 0.343329 -0.687152
2010-10-15 06:10:19 51°13.662 2°55.961 20.5651 0.065058 0.343329 -0.721976
2010-10-15 06:10:24 51°13.663 2°55.961 20.5681 0.065058 0.343329 -0.687152
2010-10-15 06:10:29 51°13.663 2°55.961 20.5685 0.065058 0.343324 -0.721976
2010-10-15 06:10:34 51°13.662 2°55.961 20.5674 0.065058 0.343324 -0.721976
2010-10-15 06:10:39 51°13.662 2°55.961 20.5717 0.065058 0.343329 -0.687152
2010-10-15 06:10:44 51°13.662 2°55.961 20.5731 0.065058 0.343324 -0.687152
2010-10-15 06:10:49 51°13.662 2°55.961 20.5763 0.065058 0.343319 -0.721976
2010-10-15 06:10:54 51°13.662 2°55.961 20.5744 0.065058 0.343319 -0.721976
2010-10-15 06:10:59 51°13.662 2°55.961 20.5771 0.065058 0.343319 -0.687152
2010-10-15 06:11:04 51°13.662 2°55.961 20.5708 0.065058 0.343319 -0.687152
2010-10-15 06:11:08 51°13.662 2°55.96 20.5699 0.065058 0.343319 -0.721976
2010-10-15 06:11:14 51°13.662 2°55.961 20.5661 0.065058 0.343314 -0.687152
2010-10-15 06:11:19 51°13.662 2°55.961 20.5793 0.065058 0.343319 -0.687152
2010-10-15 06:11:23 51°13.662 2°55.961 20.5861 0.065058 0.343314 -0.721976
2010-10-15 06:11:29 51°13.662 2°55.961 20.5778 0.065058 0.343314 -0.721976
2010-10-15 06:11:34 51°13.662 2°55.961 20.5694 0.065058 0.343314 -0.721976
2010-10-15 06:11:39 51°13.662 2°55.961 20.5723 0.065058 0.343314 -0.687152
2010-10-15 06:11:44 51°13.662 2°55.961 20.5658 0.065058 0.343314 -0.721976
2010-10-15 06:11:49 51°13.662 2°55.962 20.5708 0.065058 0.343308 -0.721976
2010-10-15 06:11:54 51°13.662 2°55.962 20.5688 0.065058 0.343314 -0.721976
2010-10-15 06:11:59 51°13.662 2°55.962 20.5743 0.065058 0.343308 -0.687152
2010-10-15 06:12:04 51°13.662 2°55.962 20.5683 0.065058 0.343308 -0.687152
2010-10-15 06:12:09 51°13.662 2°55.962 20.5826 0.065058 0.343303 -0.721976
2010-10-15 06:12:14 51°13.662 2°55.962 20.5781 0.065058 0.343308 -0.687152
2010-10-15 06:12:19 51°13.662 2°55.962 20.5775 0.065058 0.343303 -0.721976
2010-10-15 06:12:24 51°13.662 2°55.962 20.5788 0.065058 0.343303 -0.721976
2010-10-15 06:12:29 51°13.662 2°55.962 20.5803 0.065058 0.343303 -0.687152
2010-10-15 06:12:34 51°13.662 2°55.962 20.5796 0.065058 0.343303 -0.687152
2010-10-15 06:12:39 51°13.662 2°55.962 20.5792 0.065058 0.343303 -0.687152
2010-10-15 06:12:44 51°13.662 2°55.962 20.5771 0.065058 0.343303 -0.721976
2010-10-15 06:12:49 51°13.662 2°55.962 20.5745 0.065058 0.343298 -0.687152
2010-10-15 06:12:54 51°13.662 2°55.962 20.5746 0.065058 0.343298 -0.687152
2010-10-15 06:12:59 51°13.662 2°55.962 20.5798 0.065058 0.343298 -0.721976
2010-10-15 06:13:04 51°13.662 2°55.962 20.5788 0.065058 0.343298 -0.721976
2010-10-15 06:13:09 51°13.662 2°55.962 20.5839 0.065058 0.343303 -0.687152
2010-10-15 06:13:13 51°13.662 2°55.962 20.5804 0.065058 0.343298 -0.687152
2010-10-15 06:13:18 51°13.662 2°55.962 20.5828 0.065058 0.343292 -0.687152
2010-10-15 06:13:24 51°13.662 2°55.962 20.5823 0.065058 0.343292 -0.652328
2010-10-15 06:13:29 51°13.662 2°55.962 20.5844 0.065058 0.343292 -0.687152
2010-10-15 06:13:34 51°13.662 2°55.962 20.5963 0.065058 0.343292 -0.687152
2010-10-15 06:13:39 51°13.662 2°55.962 20.5688 0.065058 0.343292 -0.687152
2010-10-15 06:13:44 51°13.662 2°55.962 20.5569 0.065058 0.343287 -0.687152
2010-10-15 06:13:49 51°13.662 2°55.961 20.5681 0.065058 0.343287 -0.687152
2010-10-15 06:13:54 51°13.662 2°55.961 20.5783 0.065058 0.343287 -0.721976
2010-10-15 06:13:59 51°13.662 2°55.961 20.5848 0.065058 0.343282 -0.687152
2010-10-15 06:14:04 51°13.662 2°55.961 20.5779 0.065058 0.343282 -0.687152
2010-10-15 06:14:09 51°13.662 2°55.962 20.5818 0.065058 0.343282 -0.687152
2010-10-15 06:14:14 51°13.662 2°55.961 20.5907 0.065058 0.343287 -0.687152
2010-10-15 06:14:19 51°13.662 2°55.961 20.5969 0.065058 0.343282 -0.721976
2010-10-15 06:14:24 51°13.662 2°55.961 20.587 0.065058 0.343282 -0.687152
2010-10-15 06:14:29 51°13.662 2°55.961 20.5765 0.065058 0.343282 -0.687152
2010-10-15 06:14:34 51°13.662 2°55.961 20.5962 0.065058 0.343282 -0.687152
2010-10-15 06:14:39 51°13.662 2°55.961 20.595 0.065058 0.343282 -0.687152
2010-10-15 06:14:44 51°13.662 2°55.961 20.5922 0.065058 0.343271 -0.721976
2010-10-15 06:14:49 51°13.662 2°55.961 20.5902 0.065058 0.343277 -0.687152
2010-10-15 06:14:54 51°13.662 2°55.961 20.5924 0.065058 0.343271 -0.721976
2010-10-15 06:14:59 51°13.662 2°55.961 20.5937 0.065058 0.343271 -0.687152
2010-10-15 06:15:04 51°13.662 2°55.961 20.6049 0.065058 0.343271 -0.687152
2010-10-15 06:15:09 51°13.662 2°55.961 20.5688 0.065058 0.343271 -0.687152
2010-10-15 06:15:14 51°13.662 2°55.961 20.5843 0.065058 0.343271 -0.721976
2010-10-15 06:15:19 51°13.662 2°55.961 20.6006 0.065058 0.343271 -0.687152
2010-10-15 06:15:24 51°13.662 2°55.961 20.5934 0.065058 0.343266 -0.687152
2010-10-15 06:15:29 51°13.662 2°55.961 20.587 0.065058 0.343266 -0.687152
2010-10-15 06:15:34 51°13.662 2°55.961 20.5897 0.065058 0.343266 -0.687152
2010-10-15 06:15:39 51°13.662 2°55.961 20.5978 0.065058 0.343266 -0.687152
2010-10-15 06:15:44 51°13.662 2°55.961 20.5967 0.065058 0.343266 -0.687152
2010-10-15 06:15:49 51°13.662 2°55.96 20.6005 0.065058 0.343266 -0.721976
2010-10-15 06:15:54 51°13.662 2°55.96 20.598 0.065058 0.343261 -0.687152
2010-10-15 06:15:59 51°13.662 2°55.96 20.5956 0.065058 0.343261 -0.687152
2010-10-15 06:16:04 51°13.662 2°55.96 20.6055 0.065058 0.343261 -0.687152
2010-10-15 06:16:09 51°13.662 2°55.96 20.6069 0.065058 0.343266 -0.687152
2010-10-15 06:16:14 51°13.662 2°55.96 20.6119 0.065058 0.343256 -0.721976
2010-10-15 06:16:19 51°13.662 2°55.96 20.6091 0.065058 0.343261 -0.721976
2010-10-15 06:16:24 51°13.662 2°55.96 20.6032 0.065058 0.343256 -0.721976
2010-10-15 06:16:29 51°13.662 2°55.96 20.5893 0.065058 0.343256 -0.721976
2010-10-15 06:16:34 51°13.662 2°55.96 20.5948 0.065058 0.343256 -0.721976
2010-10-15 06:16:39 51°13.662 2°55.96 20.6 0.065058 0.343256 -0.687152
2010-10-15 06:16:44 51°13.662 2°55.96 20.604 0.065058 0.34325 -0.687152
2010-10-15 06:16:49 51°13.662 2°55.96 20.613 0.065058 0.343256 -0.687152
2010-10-15 06:16:54 51°13.662 2°55.96 20.588 0.065058 0.343256 -0.687152
2010-10-15 06:16:59 51°13.662 2°55.96 20.5807 0.065058 0.34325 -0.687152
2010-10-15 06:17:04 51°13.662 2°55.96 20.5934 0.065058 0.34325 -0.687152
2010-10-15 06:17:09 51°13.662 2°55.96 20.614 0.065058 0.34325 -0.687152
2010-10-15 06:17:14 51°13.662 2°55.96 20.5947 0.065058 0.34325 -0.721976
2010-10-15 06:17:18 51°13.662 2°55.96 20.6065 0.065058 0.34325 -0.687152
2010-10-15 06:17:24 51°13.662 2°55.96 20.6105 0.065058 0.343245 -0.721976
2010-10-15 06:17:29 51°13.662 2°55.96 20.6145 0.065058 0.343245 -0.687152
2010-10-15 06:17:34 51°13.662 2°55.96 20.6138 0.065058 0.343245 -0.687152
2010-10-15 06:17:39 51°13.662 2°55.96 20.6219 0.065058 0.34324 -0.687152
2010-10-15 06:17:44 51°13.662 2°55.96 20.6117 0.065058 0.34324 -0.687152
2010-10-15 06:17:49 51°13.662 2°55.96 20.6109 0.065058 0.34324 -0.652328
2010-10-15 06:17:54 51°13.662 2°55.96 20.5974 0.065058 0.34324 -0.687152
2010-10-15 06:18:01 51°13.662 2°55.96 20.5952 0.065058 0.34324 -0.687152
2010-10-15 06:18:06 51°13.662 2°55.96 20.6017 0.065058 0.343235 -0.687152
2010-10-15 06:18:11 51°13.662 2°55.96 20.6039 0.065058 0.343235 -0.721976
2010-10-15 06:18:16 51°13.662 2°55.96 20.6053 0.065058 0.343235 -0.721976
2010-10-15 06:18:21 51°13.662 2°55.96 20.6097 0.065058 0.343235 -0.687152
2010-10-15 06:18:26 51°13.662 2°55.96 20.6112 0.065058 0.343235 -0.687152
2010-10-15 06:18:30 51°13.662 2°55.96 20.6097 0.065058 0.343235 -0.687152
2010-10-15 06:18:35 51°13.662 2°55.961 20.6078 0.065058 0.343235 -0.721976
2010-10-15 06:18:40 51°13.662 2°55.961 20.5994 0.065058 0.343229 -0.721976
2010-10-15 06:18:45 51°13.661 2°55.961 20.5982 0.065058 0.343229 -0.721976
2010-10-15 06:18:50 51°13.661 2°55.961 20.6009 0.065058 0.343229 -0.721976
2010-10-15 06:18:55 51°13.661 2°55.961 20.6071 0.065058 0.343229 -0.687152
2010-10-15 06:19:00 51°13.662 2°55.961 20.6111 0.065058 0.343229 -0.687152
2010-10-15 06:19:05 51°13.662 2°55.961 20.6098 0.065058 0.343224 -0.687152
2010-10-15 06:19:10 51°13.662 2°55.961 20.6105 0.065058 0.343224 -0.687152
2010-10-15 06:19:14 51°13.662 2°55.961 20.6029 0.065058 0.343224 -0.687152
2010-10-15 06:19:19 51°13.662 2°55.961 20.6038 0.065058 0.343229 -0.687152
2010-10-15 06:19:24 51°13.662 2°55.961 20.6013 0.065058 0.343224 -0.687152
2010-10-15 06:19:29 51°13.662 2°55.961 20.6022 0.065058 0.343219 -0.687152
2010-10-15 06:19:34 51°13.662 2°55.961 20.6079 0.065058 0.343219 -0.721976
2010-10-15 06:19:38 51°13.662 2°55.961 20.6075 0.065058 0.343219 -0.687152
2010-10-15 06:19:43 51°13.662 2°55.961 20.6175 0.065058 0.343219 -0.687152
2010-10-15 06:19:48 51°13.662 2°55.961 20.6189 0.065058 0.343219 -0.721976
2010-10-15 06:19:53 51°13.662 2°55.961 20.6203 0.065058 0.343219 -0.721976
2010-10-15 06:19:58 51°13.662 2°55.961 20.6187 0.065058 0.343219 -0.687152
2010-10-15 06:20:03 51°13.662 2°55.961 20.6177 0.065058 0.343219 -0.687152
2010-10-15 06:20:07 51°13.662 2°55.961 20.6103 0.065058 0.343213 -0.687152
2010-10-15 06:20:12 51°13.662 2°55.961 20.6055 0.065058 0.343213 -0.687152
2010-10-15 06:20:17 51°13.662 2°55.961 20.6008 0.065058 0.343213 -0.687152
2010-10-15 06:20:22 51°13.662 2°55.961 20.5999 0.065058 0.343213 -0.687152
2010-10-15 06:20:27 51°13.662 2°55.961 20.601 0.065058 0.343208 -0.721976
2010-10-15 06:20:32 51°13.662 2°55.961 20.6059 0.065058 0.343213 -0.687152
2010-10-15 06:20:37 51°13.662 2°55.961 20.6118 0.065058 0.343208 -0.687152
2010-10-15 06:20:42 51°13.662 2°55.961 20.6138 0.065058 0.343208 -0.687152
2010-10-15 06:20:47 51°13.662 2°55.961 20.6152 0.065058 0.343213 -0.687152
2010-10-15 06:20:52 51°13.662 2°55.961 20.6163 0.065058 0.343208 -0.687152
2010-10-15 06:20:57 51°13.662 2°55.961 20.614 0.065058 0.343208 -0.721976
2010-10-15 06:21:02 51°13.662 2°55.961 20.6148 0.065058 0.343203 -0.721976
2010-10-15 06:21:07 51°13.662 2°55.961 20.6207 0.065058 0.343203 -0.721976
2010-10-15 06:21:12 51°13.662 2°55.961 20.6218 0.065058 0.343203 -0.721976
2010-10-15 06:21:17 51°13.662 2°55.961 20.6223 0.065058 0.343203 -0.721976
2010-10-15 06:21:22 51°13.662 2°55.961 20.6214 0.065058 0.343203 -0.721976
2010-10-15 06:21:27 51°13.662 2°55.961 20.6149 0.065058 0.343198 -0.721976
2010-10-15 06:21:32 51°13.662 2°55.961 20.6097 0.065058 0.343198 -0.687152
2010-10-15 06:21:38 51°13.662 2°55.961 20.6092 0.065058 0.343198 -0.687152
2010-10-15 06:21:42 51°13.662 2°55.961 20.6093 0.065058 0.343198 -0.687152
2010-10-15 06:21:46 51°13.662 2°55.961 20.6092 0.065058 0.343198 -0.721976
2010-10-15 06:21:52 51°13.662 2°55.961 20.6114 0.065058 0.343203 -0.687152
2010-10-15 06:21:57 51°13.662 2°55.961 20.6072 0.065058 0.343198 -0.687152
2010-10-15 06:22:02 51°13.662 2°55.961 20.6099 0.065058 0.343198 -0.687152
2010-10-15 06:22:07 51°13.662 2°55.961 20.6144 0.065058 0.343198 -0.687152
2010-10-15 06:22:12 51°13.662 2°55.961 20.6098 0.065058 0.343198 -0.687152
2010-10-15 06:22:17 51°13.662 2°55.961 20.6139 0.065058 0.343192 -0.721976
2010-10-15 06:22:22 51°13.662 2°55.961 20.6143 0.065058 0.343192 -0.721976
2010-10-15 06:22:27 51°13.662 2°55.961 20.6151 0.065162 0.343758 -0.652328
2010-10-15 06:22:32 51°13.663 2°55.961 20.6133 0.065058 0.343192 -0.721976
2010-10-15 06:22:37 51°13.663 2°55.962 20.6093 0.065058 0.343192 -0.687152
2010-10-15 06:22:42 51°13.662 2°55.961 20.6271 0.065058 0.343192 -0.687152
2010-10-15 06:22:47 51°13.662 2°55.961 20.6319 0.065058 0.343192 -0.721976
2010-10-15 06:22:52 51°13.662 2°55.961 20.6272 0.065058 0.343187 -0.687152
2010-10-15 06:22:57 51°13.662 2°55.961 20.6281 0.065058 0.343198 -0.687152
2010-10-15 06:23:02 51°13.662 2°55.961 20.6271 0.065058 0.343187 -0.687152
2010-10-15 06:23:06 51°13.663 2°55.961 20.6273 0.065058 0.343187 -0.721976
2010-10-15 06:23:12 51°13.663 2°55.961 20.6289 0.065162 0.343758 -0.687152
2010-10-15 06:23:17 51°13.663 2°55.961 20.6248 0.065162 0.343758 -0.687152
2010-10-15 06:23:22 51°13.663 2°55.961 20.6263 0.065058 0.343192 -0.721976
2010-10-15 06:23:27 51°13.663 2°55.961 20.6284 0.065162 0.343758 -0.687152
2010-10-15 06:23:32 51°13.663 2°55.961 20.6325 0.065162 0.343758 -0.721976
2010-10-15 06:23:37 51°13.663 2°55.961 20.6325 0.065162 0.343752 -0.687152
2010-10-15 06:23:42 51°13.663 2°55.961 20.6324 0.065162 0.343752 -0.687152
2010-10-15 06:23:46 51°13.663 2°55.961 20.6321 0.065058 0.343187 -0.687152
2010-10-15 06:23:52 51°13.663 2°55.961 20.6294 0.065162 0.343758 -0.687152
2010-10-15 06:23:57 51°13.663 2°55.961 20.6367 0.065058 0.343187 -0.687152
2010-10-15 06:24:02 51°13.663 2°55.961 20.6368 0.065058 0.343187 -0.721976
2010-10-15 06:24:07 51°13.663 2°55.96 20.6403 0.065162 0.343758 -0.721976
2010-10-15 06:24:12 51°13.663 2°55.961 20.6451 0.065162 0.343758 -0.721976
2010-10-15 06:24:17 51°13.663 2°55.961 20.6411 0.065162 0.343752 -0.687152
2010-10-15 06:24:22 51°13.663 2°55.961 20.642 0.065058 0.343187 -0.721976
2010-10-15 06:24:27 51°13.663 2°55.96 20.6382 0.065058 0.343187 -0.721976
2010-10-15 06:24:32 51°13.663 2°55.96 20.6407 0.065162 0.343752 -0.687152
2010-10-15 06:24:37 51°13.663 2°55.96 20.6411 0.065162 0.343752 -0.687152
2010-10-15 06:24:42 51°13.662 2°55.96 20.6455 0.065162 0.343752 -0.687152
2010-10-15 06:24:47 51°13.663 2°55.961 20.6483 0.065162 0.343747 -0.721976
2010-10-15 06:24:52 51°13.663 2°55.961 20.6444 0.065162 0.343747 -0.687152
2010-10-15 06:24:58 51°13.662 2°55.961 20.6436 0.065058 0.343182 -0.652328
2010-10-15 06:25:02 51°13.662 2°55.961 20.6296 0.065162 0.343752 -0.687152
2010-10-15 06:25:07 51°13.662 2°55.961 20.6338 0.065162 0.343752 -0.721976
2010-10-15 06:25:12 51°13.662 2°55.961 20.6317 0.065162 0.343752 -0.721976
2010-10-15 06:25:17 51°13.663 2°55.961 20.6328 0.065058 0.343192 -0.687152
2010-10-15 06:25:22 51°13.662 2°55.961 20.6288 0.065162 0.343747 -0.721976
2010-10-15 06:25:27 51°13.662 2°55.961 20.6312 0.065162 0.343758 -0.687152
2010-10-15 06:25:32 51°13.662 2°55.961 20.6316 0.065162 0.343752 -0.687152
2010-10-15 06:25:38 51°13.662 2°55.961 20.6345 0.065058 0.343187 -0.687152
2010-10-15 06:25:42 51°13.662 2°55.961 20.632 0.065058 0.343187 -0.687152
2010-10-15 06:25:47 51°13.662 2°55.96 20.6391 0.065162 0.343752 -0.687152
2010-10-15 06:25:52 51°13.662 2°55.96 20.6407 0.065162 0.343752 -0.721976
2010-10-15 06:25:57 51°13.662 2°55.96 20.6331 0.065162 0.343752 -0.721976
2010-10-15 06:26:02 51°13.662 2°55.961 20.6315 0.065162 0.343752 -0.687152
2010-10-15 06:26:07 51°13.662 2°55.96 20.6349 0.065162 0.343752 -0.687152
2010-10-15 06:26:12 51°13.663 2°55.96 20.6367 0.065162 0.343752 -0.687152
2010-10-15 06:26:18 51°13.662 2°55.96 20.6378 0.065058 0.343187 -0.721976
2010-10-15 06:26:22 51°13.662 2°55.96 20.6403 0.065162 0.343752 -0.687152
2010-10-15 06:26:26 51°13.662 2°55.96 20.6435 0.065162 0.343747 -0.721976
2010-10-15 06:26:32 51°13.662 2°55.96 20.6473 0.065162 0.343752 -0.687152
2010-10-15 06:26:37 51°13.663 2°55.96 20.6478 0.065162 0.343752 -0.687152
2010-10-15 06:26:42 51°13.662 2°55.96 20.6456 0.065162 0.343747 -0.687152
2010-10-15 06:26:47 51°13.662 2°55.96 20.6418 0.065162 0.343747 -0.687152
2010-10-15 06:26:52 51°13.662 2°55.96 20.635 0.065162 0.343752 -0.721976
2010-10-15 06:26:57 51°13.662 2°55.96 20.6384 0.065162 0.343752 -0.687152
2010-10-15 06:27:02 51°13.662 2°55.96 20.6462 0.065162 0.343752 -0.652328
2010-10-15 06:27:07 51°13.663 2°55.96 20.639 0.065162 0.343752 -0.687152
2010-10-15 06:27:12 51°13.662 2°55.96 20.6395 0.065162 0.343752 -0.687152
2010-10-15 06:27:17 51°13.662 2°55.96 20.6405 0.065162 0.343747 -0.687152
2010-10-15 06:27:22 51°13.662 2°55.96 20.6393 0.065162 0.343747 -0.687152
2010-10-15 06:27:27 51°13.662 2°55.96 20.6393 0.065162 0.343752 -0.687152
2010-10-15 06:27:32 51°13.662 2°55.96 20.6447 0.065162 0.343758 -0.687152
2010-10-15 06:27:38 51°13.662 2°55.96 20.6507 0.065162 0.343752 -0.687152
2010-10-15 06:27:42 51°13.662 2°55.96 20.6524 0.065162 0.343752 -0.687152
2010-10-15 06:27:46 51°13.662 2°55.96 20.6402 0.065162 0.343752 -0.721976
2010-10-15 06:27:52 51°13.662 2°55.961 20.6396 0.065162 0.343752 -0.687152
2010-10-15 06:27:57 51°13.662 2°55.96 20.644 0.065162 0.343752 -0.687152
2010-10-15 06:28:02 51°13.662 2°55.96 20.6456 0.065162 0.343752 -0.721976
2010-10-15 06:28:07 51°13.662 2°55.96 20.6433 0.065162 0.343747 -0.721976
2010-10-15 06:28:12 51°13.662 2°55.961 20.6335 0.065162 0.343747 -0.721976
2010-10-15 06:28:18 51°13.662 2°55.96 20.6346 0.065162 0.343752 -0.687152
2010-10-15 06:28:22 51°13.662 2°55.96 20.6214 0.065162 0.343747 -0.687152
2010-10-15 06:28:27 51°13.662 2°55.96 20.605 0.065162 0.343752 -0.687152
2010-10-15 06:28:32 51°13.662 2°55.96 20.6144 0.065162 0.343747 -0.687152
2010-10-15 06:28:37 51°13.662 2°55.961 20.6221 0.065162 0.343752 -0.687152
2010-10-15 06:28:42 51°13.662 2°55.961 20.6337 0.065162 0.343752 -0.687152
2010-10-15 06:28:47 51°13.662 2°55.961 20.6377 0.065162 0.343752 -0.721976
2010-10-15 06:28:52 51°13.662 2°55.961 20.6277 0.065162 0.343752 -0.721976
2010-10-15 06:28:57 51°13.663 2°55.961 20.6301 0.065162 0.343752 -0.721976
2010-10-15 06:29:02 51°13.662 2°55.961 20.629 0.065162 0.343747 -0.721976
2010-10-15 06:29:07 51°13.662 2°55.96 20.6313 0.065162 0.343747 -0.687152
2010-10-15 06:29:12 51°13.663 2°55.959 20.6325 0.065162 0.343747 -0.687152
2010-10-15 06:29:17 51°13.664 2°55.959 20.6326 0.065162 0.343747 -0.687152
2010-10-15 06:29:22 51°13.664 2°55.959 20.6286 0.065162 0.343747 -0.721976
2010-10-15 06:29:27 51°13.664 2°55.959 20.6258 0.065162 0.343747 -0.652328
2010-10-15 06:29:32 51°13.663 2°55.959 20.63 0.065162 0.343752 -0.687152
2010-10-15 06:29:37 51°13.664 2°55.959 20.6392 0.065162 0.343747 -0.687152
2010-10-15 06:29:42 51°13.664 2°55.959 20.6459 0.065162 0.343747 -0.687152
2010-10-15 06:29:47 51°13.663 2°55.959 20.6498 0.065162 0.343752 -0.721976
2010-10-15 06:29:52 51°13.664 2°55.959 20.6387 0.065162 0.343747 -0.687152
2010-10-15 06:29:57 51°13.664 2°55.959 20.6367 0.065162 0.343752 -0.687152
2010-10-15 06:30:02 51°13.664 2°55.959 20.6388 0.065162 0.343742 -0.721976
2010-10-15 06:30:06 51°13.664 2°55.958 20.6402 0.065162 0.343747 -0.721976
2010-10-15 06:30:12 51°13.664 2°55.958 20.641 0.065162 0.343747 -0.687152
2010-10-15 06:30:17 51°13.664 2°55.958 20.6464 0.065162 0.343747 -0.687152
2010-10-15 06:30:22 51°13.664 2°55.958 20.6434 0.065162 0.343747 -0.687152
2010-10-15 06:30:27 51°13.664 2°55.958 20.6429 0.065162 0.343747 -0.687152
2010-10-15 06:30:32 51°13.664 2°55.958 20.6448 0.065162 0.343747 -0.687152
2010-10-15 06:30:37 51°13.664 2°55.958 20.6481 0.065162 0.343742 -0.687152
2010-10-15 06:30:42 51°13.665 2°55.958 20.6468 0.065162 0.343742 -0.687152
2010-10-15 06:30:47 51°13.665 2°55.958 20.6538 0.065162 0.343742 -0.687152
2010-10-15 06:30:52 51°13.664 2°55.958 20.6504 0.065162 0.343747 -0.687152
2010-10-15 06:30:57 51°13.664 2°55.957 20.6468 0.065162 0.343747 -0.687152
2010-10-15 06:31:02 51°13.664 2°55.957 20.6454 0.065162 0.343742 -0.687152
2010-10-15 06:31:07 51°13.664 2°55.957 20.6474 0.065162 0.343742 -0.687152
2010-10-15 06:31:12 51°13.663 2°55.957 20.6467 0.065162 0.343742 -0.687152
2010-10-15 06:31:17 51°13.664 2°55.958 20.6473 0.065162 0.343742 -0.687152
2010-10-15 06:31:22 51°13.664 2°55.958 20.6524 0.065162 0.343742 -0.687152
2010-10-15 06:31:27 51°13.664 2°55.957 20.6553 0.065162 0.343742 -0.721976
2010-10-15 06:31:32 51°13.664 2°55.957 20.6558 0.065162 0.343747 -0.721976
2010-10-15 06:31:37 51°13.664 2°55.957 20.6511 0.065162 0.343747 -0.652328
2010-10-15 06:31:42 51°13.664 2°55.957 20.6439 0.065162 0.343747 -0.652328
2010-10-15 06:31:47 51°13.664 2°55.957 20.6513 0.065162 0.343742 -0.721976
2010-10-15 06:31:52 51°13.664 2°55.957 20.6557 0.065162 0.343747 -0.687152
2010-10-15 06:31:57 51°13.664 2°55.957 20.6567 0.065162 0.343747 -0.721976
2010-10-15 06:32:02 51°13.664 2°55.957 20.6615 0.065162 0.343742 -0.687152
2010-10-15 06:32:07 51°13.664 2°55.957 20.657 0.065162 0.343742 -0.721976
2010-10-15 06:32:12 51°13.664 2°55.957 20.648 0.065162 0.343742 -0.687152
2010-10-15 06:32:17 51°13.664 2°55.957 20.6453 0.065162 0.343742 -0.687152
2010-10-15 06:32:22 51°13.664 2°55.957 20.6509 0.065162 0.343742 -0.687152
2010-10-15 06:32:26 51°13.664 2°55.957 20.6442 0.065162 0.343742 -0.687152
2010-10-15 06:32:32 51°13.664 2°55.958 20.6488 0.065162 0.343742 -0.687152
2010-10-15 06:32:37 51°13.664 2°55.958 20.6511 0.065162 0.343742 -0.687152
2010-10-15 06:32:42 51°13.664 2°55.958 20.6479 0.065162 0.343742 -0.687152
2010-10-15 06:32:47 51°13.664 2°55.958 20.6436 0.065162 0.343742 -0.721976
2010-10-15 06:32:52 51°13.664 2°55.958 20.6487 0.065162 0.343736 -0.652328
2010-10-15 06:32:57 51°13.664 2°55.958 20.6551 0.065162 0.343736 -0.687152
2010-10-15 06:33:02 51°13.663 2°55.958 20.6541 0.065162 0.343742 -0.721976
2010-10-15 06:33:07 51°13.664 2°55.958 20.6566 0.065162 0.343742 -0.687152
2010-10-15 06:33:12 51°13.664 2°55.958 20.6518 0.065162 0.343742 -0.687152
2010-10-15 06:33:17 51°13.664 2°55.958 20.6564 0.065162 0.343736 -0.721976
2010-10-15 06:33:22 51°13.664 2°55.958 20.6604 0.065162 0.343736 -0.687152
2010-10-15 06:33:27 51°13.664 2°55.958 20.6595 0.065162 0.343736 -0.721976
2010-10-15 06:33:32 51°13.663 2°55.958 20.6647 0.065162 0.343736 -0.721976
2010-10-15 06:33:37 51°13.663 2°55.959 20.673 0.065162 0.343736 -0.687152
2010-10-15 06:33:42 51°13.663 2°55.959 20.677 0.065162 0.343736 -0.687152
2010-10-15 06:33:47 51°13.663 2°55.959 20.6799 0.065162 0.343736 -0.721976
2010-10-15 06:33:53 51°13.663 2°55.958 20.6753 0.065162 0.343731 -0.687152
2010-10-15 06:33:57 51°13.663 2°55.958 20.6658 0.065162 0.343736 -0.687152
2010-10-15 06:34:02 51°13.663 2°55.958 20.6643 0.065162 0.343736 -0.687152
2010-10-15 06:34:07 51°13.662 2°55.959 20.6649 0.065162 0.343736 -0.721976
2010-10-15 06:34:12 51°13.662 2°55.958 20.6676 0.065162 0.343736 -0.721976
2010-10-15 06:34:17 51°13.663 2°55.958 20.6568 0.065162 0.343742 -0.687152
2010-10-15 06:34:22 51°13.663 2°55.958 20.6425 0.065162 0.343736 -0.687152
2010-10-15 06:34:27 51°13.664 2°55.957 20.6452 0.065162 0.343736 -0.687152
2010-10-15 06:34:32 51°13.664 2°55.956 20.6449 0.065162 0.343731 -0.721976
2010-10-15 06:34:37 51°13.664 2°55.956 20.6526 0.065162 0.343731 -0.721976
2010-10-15 06:34:42 51°13.664 2°55.954 20.6028 0.065162 0.343731 -0.721976
2010-10-15 06:34:47 51°13.665 2°55.953 20.5935 0.065162 0.343736 -0.687152
2010-10-15 06:34:52 51°13.665 2°55.951 20.6056 0.065162 0.343742 -0.687152
2010-10-15 06:34:57 51°13.665 2°55.948 20.6175 0.065162 0.343736 -0.687152
2010-10-15 06:35:02 51°13.665 2°55.945 20.6275 0.065162 0.343742 -0.721976
2010-10-15 06:35:07 51°13.666 2°55.941 20.6636 0.065162 0.343736 -0.721976
2010-10-15 06:35:13 51°13.668 2°55.935 20.6455 0.065162 0.343736 -0.721976
2010-10-15 06:35:19 51°13.67 2°55.928 20.6743 0.065162 0.343736 -0.721976
2010-10-15 06:35:24 51°13.672 2°55.921 20.6547 0.065162 0.343747 -0.721976
2010-10-15 06:35:30 51°13.674 2°55.913 20.6791 0.065162 0.343742 -0.652328
2010-10-15 06:35:36 51°13.677 2°55.904 20.6722 0.065162 0.343742 -0.721976
2010-10-15 06:35:41 51°13.679 2°55.896 20.6839 0.065162 0.343742 -0.687152
2010-10-15 06:35:46 51°13.68 2°55.888 20.6573 0.065162 0.343742 -0.687152
2010-10-15 06:35:51 51°13.682 2°55.879 20.6681 0.065162 0.343742 -0.687152
2010-10-15 06:35:56 51°13.683 2°55.871 20.6781 0.065162 0.343742 -0.687152
2010-10-15 06:36:01 51°13.685 2°55.861 20.681 0.065162 0.343736 -0.652328
2010-10-15 06:36:06 51°13.686 2°55.852 20.6705 0.065162 0.343742 -0.687152
2010-10-15 06:36:11 51°13.688 2°55.842 20.6623 0.065162 0.343736 -0.687152
2010-10-15 06:36:16 51°13.69 2°55.833 20.671 0.065162 0.343736 -0.687152
2010-10-15 06:36:21 51°13.691 2°55.823 20.6806 0.065162 0.343736 -0.687152
2010-10-15 06:36:26 51°13.692 2°55.813 20.6789 0.065162 0.343736 -0.687152
2010-10-15 06:36:30 51°13.693 2°55.805 20.6916 0.065162 0.343736 -0.687152
2010-10-15 06:36:36 51°13.694 2°55.794 20.6681 0.065162 0.343736 -0.721976
2010-10-15 06:36:41 51°13.695 2°55.784 20.6836 0.065162 0.343736 -0.721976
2010-10-15 06:36:46 51°13.695 2°55.775 20.6511 0.065162 0.343736 -0.721976
2010-10-15 06:36:50 51°13.694 2°55.768 20.6804 0.065162 0.343736 -0.687152
2010-10-15 06:36:56 51°13.693 2°55.758 20.6807 0.065162 0.343736 -0.687152
2010-10-15 06:37:01 51°13.693 2°55.75 20.6762 0.065162 0.343736 -0.687152
2010-10-15 06:37:06 51°13.693 2°55.743 20.6615 0.065162 0.343736 -0.687152
2010-10-15 06:37:10 51°13.692 2°55.737 20.6288 0.065162 0.343731 -0.721976
2010-10-15 06:37:15 51°13.692 2°55.732 20.6754 0.065162 0.343731 -0.721976
2010-10-15 06:37:21 51°13.692 2°55.729 20.6974 0.065162 0.343726 -0.687152
2010-10-15 06:37:26 51°13.692 2°55.728 20.7031 0.065162 0.343726 -0.721976
2010-10-15 06:37:30 51°13.692 2°55.727 20.6942 0.065162 0.343721 -0.721976
2010-10-15 06:37:35 51°13.693 2°55.727 20.6912 0.065162 0.343731 -0.721976
2010-10-15 06:37:40 51°13.694 2°55.727 20.6901 0.065162 0.343731 -0.721976
2010-10-15 06:37:45 51°13.694 2°55.727 20.6915 0.065162 0.343731 -0.721976
2010-10-15 06:37:50 51°13.695 2°55.728 20.6862 0.065162 0.343736 -0.687152
2010-10-15 06:37:54 51°13.696 2°55.728 20.6989 0.065162 0.343747 -0.721976
2010-10-15 06:37:59 51°13.697 2°55.729 20.7166 0.065162 0.343747 -0.721976
2010-10-15 06:38:04 51°13.699 2°55.73 20.7202 0.065162 0.343742 -0.687152
2010-10-15 06:38:09 51°13.701 2°55.731 20.7279 0.065162 0.343742 -0.687152
2010-10-15 06:38:14 51°13.703 2°55.732 20.7888 0.065162 0.343742 -0.687152
2010-10-15 06:38:18 51°13.706 2°55.733 20.7895 0.065162 0.343736 -0.687152
2010-10-15 06:38:23 51°13.71 2°55.733 20.772 0.065058 0.343177 -0.687152
2010-10-15 06:38:28 51°13.714 2°55.732 20.7756 0.065162 0.343742 -0.721976
2010-10-15 06:38:33 51°13.717 2°55.731 20.7744 0.065266 0.344312 -0.687152
2010-10-15 06:38:38 51°13.722 2°55.729 20.7729 0.065266 0.344318 -0.687152
2010-10-15 06:38:42 51°13.726 2°55.727 20.7548 0.065266 0.344318 -0.687152
2010-10-15 06:38:47 51°13.731 2°55.724 20.6756 0.065266 0.344318 -0.721976
2010-10-15 06:38:53 51°13.736 2°55.719 20.5953 0.065266 0.344312 -0.687152
2010-10-15 06:38:58 51°13.742 2°55.713 20.6115 0.065266 0.344307 -0.687152
2010-10-15 06:39:02 51°13.746 2°55.709 20.5857 0.065266 0.344286 -0.721976
2010-10-15 06:39:07 51°13.752 2°55.702 20.5767 0.065266 0.344281 -0.721976
2010-10-15 06:39:12 51°13.76 2°55.696 20.4966 0.065266 0.34427 -0.687152
2010-10-15 06:39:18 51°13.769 2°55.687 20.4708 0.065266 0.34427 -0.687152
2010-10-15 06:39:22 51°13.776 2°55.681 20.4812 0.065266 0.344281 -0.652328
2010-10-15 06:39:27 51°13.784 2°55.674 20.4176 0.065266 0.344291 -0.687152
2010-10-15 06:39:32 51°13.793 2°55.666 20.4259 0.065266 0.344296 -0.687152
2010-10-15 06:39:37 51°13.802 2°55.658 20.4264 0.065266 0.344307 -0.687152
2010-10-15 06:39:42 51°13.811 2°55.65 20.4796 0.065266 0.344307 -0.687152
2010-10-15 06:39:47 51°13.821 2°55.642 20.4515 0.065266 0.344312 -0.721976
2010-10-15 06:39:52 51°13.831 2°55.633 20.5555 0.065266 0.344323 -0.687152
2010-10-15 06:39:57 51°13.842 2°55.626 20.4867 0.065266 0.344318 -0.721976
2010-10-15 06:40:02 51°13.853 2°55.618 20.4878 0.065266 0.344323 -0.721976
2010-10-15 06:40:07 51°13.864 2°55.61 20.4425 0.065266 0.344323 -0.687152
2010-10-15 06:40:12 51°13.875 2°55.601 20.3819 0.065266 0.344323 -0.687152
2010-10-15 06:40:17 51°13.887 2°55.592 20.2709 0.065266 0.344328 -0.687152
2010-10-15 06:40:22 51°13.898 2°55.583 20.2963 0.065266 0.344333 -0.687152
2010-10-15 06:40:27 51°13.91 2°55.573 20.225 0.065266 0.344323 -0.687152
2010-10-15 06:40:33 51°13.925 2°55.562 20.2354 0.065266 0.344318 -0.687152
2010-10-15 06:40:37 51°13.934 2°55.554 20.2569 0.065266 0.344312 -0.687152
2010-10-15 06:40:42 51°13.947 2°55.546 20.2935 0.065266 0.344312 -0.687152
2010-10-15 06:40:47 51°13.959 2°55.536 20.2975 0.065266 0.344307 -0.721976
2010-10-15 06:40:52 51°13.972 2°55.526 20.2549 0.065266 0.344312 -0.687152
2010-10-15 06:40:57 51°13.984 2°55.516 20.2662 0.065266 0.344318 -0.687152
2010-10-15 06:41:02 51°13.997 2°55.507 20.2669 0.065266 0.344312 -0.687152
2010-10-15 06:41:07 51°14.009 2°55.498 20.2602 0.065266 0.344318 -0.687152
2010-10-15 06:41:13 51°14.026 2°55.487 20.326 0.065266 0.344318 -0.687152
2010-10-15 06:41:17 51°14.036 2°55.479 20.3313 0.065266 0.344318 -0.687152
2010-10-15 06:41:22 51°14.048 2°55.47 20.3758 0.065266 0.344312 -0.687152
2010-10-15 06:41:27 51°14.061 2°55.46 20.3618 0.065266 0.344307 -0.721976
2010-10-15 06:41:32 51°14.074 2°55.45 20.3114 0.065266 0.344312 -0.687152
2010-10-15 06:41:38 51°14.089 2°55.439 20.3123 0.065266 0.344312 -0.652328
2010-10-15 06:41:42 51°14.099 2°55.431 20.3814 0.065266 0.344312 -0.652328
2010-10-15 06:41:47 51°14.111 2°55.422 20.3511 0.065266 0.344307 -0.687152
2010-10-15 06:41:52 51°14.123 2°55.412 20.3944 0.065266 0.344307 -0.687152
2010-10-15 06:41:58 51°14.137 2°55.4 20.4043 0.065266 0.344312 -0.721976
2010-10-15 06:42:02 51°14.146 2°55.393 20.3745 0.065266 0.344312 -0.687152
2010-10-15 06:42:06 51°14.155 2°55.385 20.3975 0.065266 0.344318 -0.687152
2010-10-15 06:42:12 51°14.169 2°55.373 20.3648 0.065266 0.344318 -0.687152
2010-10-15 06:42:17 51°14.179 2°55.363 20.4031 0.065266 0.344312 -0.687152
2010-10-15 06:42:22 51°14.19 2°55.353 20.4572 0.065266 0.344312 -0.721976
2010-10-15 06:42:27 51°14.201 2°55.343 20.3677 0.065266 0.344318 -0.687152
2010-10-15 06:42:32 51°14.211 2°55.333 20.4157 0.065266 0.344307 -0.652328
2010-10-15 06:42:37 51°14.222 2°55.323 20.4246 0.065266 0.344318 -0.687152
2010-10-15 06:42:42 51°14.232 2°55.313 20.4535 0.065266 0.344318 -0.687152
2010-10-15 06:42:46 51°14.241 2°55.305 20.3702 0.065266 0.344318 -0.687152
2010-10-15 06:42:52 51°14.253 2°55.293 20.316 0.065266 0.344312 -0.721976
2010-10-15 06:42:57 51°14.263 2°55.283 20.4524 0.065266 0.344312 -0.687152
2010-10-15 06:43:02 51°14.274 2°55.273 20.4549 0.065266 0.344312 -0.687152
2010-10-15 06:43:06 51°14.282 2°55.265 20.4417 0.065266 0.344307 -0.687152
2010-10-15 06:43:12 51°14.295 2°55.253 20.4001 0.065266 0.344307 -0.687152
2010-10-15 06:43:17 51°14.305 2°55.243 20.2816 0.065266 0.344307 -0.687152
2010-10-15 06:43:22 51°14.315 2°55.233 20.3224 0.065266 0.344307 -0.687152
2010-10-15 06:43:27 51°14.325 2°55.222 20.4161 0.065266 0.344302 -0.687152
2010-10-15 06:43:32 51°14.335 2°55.212 20.3323 0.065266 0.344302 -0.721976
2010-10-15 06:43:38 51°14.347 2°55.2 20.4272 0.065266 0.344312 -0.687152
2010-10-15 06:43:42 51°14.355 2°55.192 20.3737 0.065266 0.344312 -0.687152
2010-10-15 06:43:47 51°14.366 2°55.182 20.4166 0.065266 0.344312 -0.687152
2010-10-15 06:43:52 51°14.376 2°55.172 20.3433 0.065266 0.344307 -0.687152
2010-10-15 06:43:58 51°14.389 2°55.16 20.3776 0.065266 0.344307 -0.721976
2010-10-15 06:44:02 51°14.397 2°55.152 20.3765 0.065266 0.344307 -0.721976
2010-10-15 06:44:07 51°14.407 2°55.142 20.3155 0.065266 0.344307 -0.687152
2010-10-15 06:44:12 51°14.417 2°55.132 20.3205 0.065266 0.344307 -0.687152
2010-10-15 06:44:17 51°14.428 2°55.122 20.3944 0.065266 0.344302 -0.687152
2010-10-15 06:44:22 51°14.438 2°55.112 20.3598 0.065266 0.344296 -0.687152
2010-10-15 06:44:26 51°14.446 2°55.104 20.2751 0.065266 0.344307 -0.687152
2010-10-15 06:44:32 51°14.459 2°55.091 20.3281 0.065266 0.344312 -0.687152
2010-10-15 06:44:37 51°14.469 2°55.08 20.3086 0.065266 0.344312 -0.721976
2010-10-15 06:44:42 51°14.48 2°55.069 20.2742 0.065266 0.344307 -0.721976
2010-10-15 06:44:47 51°14.491 2°55.058 20.3441 0.065266 0.344307 -0.721976
2010-10-15 06:44:52 51°14.503 2°55.046 20.3578 0.065266 0.344302 -0.721976
2010-10-15 06:44:57 51°14.514 2°55.035 20.3389 0.065266 0.344302 -0.687152
2010-10-15 06:45:02 51°14.526 2°55.025 20.3374 0.065266 0.344291 -0.721976
2010-10-15 06:45:06 51°14.536 2°55.016 20.2745 0.065266 0.344296 -0.721976
2010-10-15 06:45:12 51°14.552 2°55.003 20.339 0.065266 0.344296 -0.721976
2010-10-15 06:45:17 51°14.565 2°54.992 20.3649 0.065266 0.344296 -0.721976
2010-10-15 06:45:22 51°14.579 2°54.981 20.3486 0.065266 0.344281 -0.687152
2010-10-15 06:45:27 51°14.592 2°54.969 20.2273 0.065266 0.344307 -0.687152
2010-10-15 06:45:32 51°14.607 2°54.957 20.314 0.065266 0.344291 -0.721976
2010-10-15 06:45:38 51°14.624 2°54.944 20.3319 0.065266 0.344296 -0.687152
2010-10-15 06:45:42 51°14.635 2°54.934 20.3353 0.065266 0.344296 -0.687152
2010-10-15 06:45:47 51°14.649 2°54.922 20.236 0.065266 0.344281 -0.687152
2010-10-15 06:45:52 51°14.664 2°54.909 20.2325 0.065266 0.344312 -0.687152
2010-10-15 06:45:58 51°14.681 2°54.893 20.2924 0.065266 0.344286 -0.721976
2010-10-15 06:46:02 51°14.693 2°54.882 20.313 0.065266 0.344302 -0.687152
2010-10-15 06:46:07 51°14.707 2°54.869 20.2042 0.065266 0.344291 -0.687152
2010-10-15 06:46:12 51°14.723 2°54.855 20.342 0.065266 0.344291 -0.687152
2010-10-15 06:46:17 51°14.738 2°54.841 20.2632 0.065266 0.344281 -0.652328
2010-10-15 06:46:22 51°14.753 2°54.827 20.3043 0.065266 0.344291 -0.721976
2010-10-15 06:46:27 51°14.769 2°54.814 20.2413 0.065266 0.344291 -0.687152
2010-10-15 06:46:32 51°14.785 2°54.8 20.2587 0.065266 0.344281 -0.652328
2010-10-15 06:46:37 51°14.801 2°54.785 20.3083 0.065266 0.344302 -0.687152
2010-10-15 06:46:42 51°14.817 2°54.772 20.265 0.065266 0.344286 -0.721976
2010-10-15 06:46:47 51°14.832 2°54.757 20.2068 0.065266 0.344286 -0.721976
2010-10-15 06:46:52 51°14.848 2°54.744 20.0505 0.065266 0.344307 -0.721976
2010-10-15 06:46:57 51°14.865 2°54.735 20.0594 0.065266 0.344275 -0.687152
2010-10-15 06:47:02 51°14.883 2°54.727 20.1131 0.065266 0.344275 -0.687152
2010-10-15 06:47:07 51°14.901 2°54.72 20.1115 0.065266 0.344291 -0.721976
2010-10-15 06:47:12 51°14.918 2°54.711 20.146 0.065266 0.344291 -0.721976
2010-10-15 06:47:17 51°14.936 2°54.702 20.1265 0.065266 0.344296 -0.721976
2010-10-15 06:47:22 51°14.953 2°54.693 20.1618 0.065266 0.344296 -0.687152
2010-10-15 06:47:27 51°14.97 2°54.682 20.1713 0.065266 0.344296 -0.652328
2010-10-15 06:47:32 51°14.987 2°54.672 20.1371 0.065266 0.344286 -0.687152
2010-10-15 06:47:37 51°15.004 2°54.661 20.1575 0.065266 0.344296 -0.721976
2010-10-15 06:47:42 51°15.021 2°54.65 20.1913 0.065266 0.344296 -0.721976
2010-10-15 06:47:46 51°15.034 2°54.64 20.1942 0.065266 0.344291 -0.721976
2010-10-15 06:47:52 51°15.053 2°54.623 20.1518 0.065266 0.344286 -0.721976
2010-10-15 06:47:57 51°15.067 2°54.607 20.1695 0.065266 0.344323 -0.652328
2010-10-15 06:48:02 51°15.081 2°54.589 20.1545 0.065266 0.344323 -0.687152
2010-10-15 06:48:07 51°15.094 2°54.571 20.1469 0.065266 0.344307 -0.687152
2010-10-15 06:48:12 51°15.107 2°54.552 20.1859 0.065266 0.344307 -0.687152
2010-10-15 06:48:17 51°15.121 2°54.534 20.1815 0.065266 0.344307 -0.687152
2010-10-15 06:48:22 51°15.135 2°54.516 20.1802 0.065266 0.34427 -0.687152
2010-10-15 06:48:27 51°15.148 2°54.499 20.1777 0.065266 0.344275 -0.687152
2010-10-15 06:48:32 51°15.163 2°54.482 20.1878 0.065266 0.344281 -0.687152
2010-10-15 06:48:37 51°15.177 2°54.463 20.1922 0.065266 0.344296 -0.687152
2010-10-15 06:48:42 51°15.191 2°54.445 20.1797 0.065266 0.344296 -0.687152
2010-10-15 06:48:47 51°15.204 2°54.426 20.194 0.065266 0.344312 -0.687152
2010-10-15 06:48:52 51°15.219 2°54.408 20.1721 0.065266 0.344312 -0.687152
2010-10-15 06:48:57 51°15.232 2°54.389 20.1858 0.065266 0.344296 -0.721976
2010-10-15 06:49:02 51°15.246 2°54.37 20.1924 0.065266 0.344291 -0.687152
2010-10-15 06:49:07 51°15.261 2°54.352 20.2031 0.065266 0.344275 -0.687152
2010-10-15 06:49:12 51°15.275 2°54.334 20.1935 0.065266 0.344275 -0.687152
2010-10-15 06:49:17 51°15.289 2°54.316 20.1894 0.065266 0.34427 -0.721976
2010-10-15 06:49:22 51°15.303 2°54.298 20.2083 0.065266 0.344286 -0.687152
2010-10-15 06:49:27 51°15.317 2°54.28 20.2081 0.065266 0.344281 -0.652328
2010-10-15 06:49:32 51°15.331 2°54.261 20.2103 0.065266 0.344296 -0.687152
2010-10-15 06:49:37 51°15.345 2°54.243 20.2148 0.065266 0.344312 -0.687152
2010-10-15 06:49:42 51°15.359 2°54.224 20.1934 0.065266 0.344312 -0.687152
2010-10-15 06:49:46 51°15.37 2°54.209 20.2018 0.065266 0.344307 -0.687152
2010-10-15 06:49:52 51°15.387 2°54.186 20.2136 0.065266 0.344307 -0.687152
2010-10-15 06:49:57 51°15.4 2°54.167 20.1938 0.065266 0.344302 -0.652328
2010-10-15 06:50:02 51°15.413 2°54.148 20.2372 0.065266 0.344291 -0.687152
2010-10-15 06:50:07 51°15.427 2°54.129 20.2386 0.065266 0.344296 -0.687152
2010-10-15 06:50:12 51°15.44 2°54.11 20.225 0.065266 0.344296 -0.687152
2010-10-15 06:50:17 51°15.453 2°54.09 20.2341 0.065266 0.344302 -0.652328
2010-10-15 06:50:22 51°15.467 2°54.071 20.2359 0.065266 0.344296 -0.652328
2010-10-15 06:50:27 51°15.479 2°54.051 20.2328 0.065266 0.344318 -0.652328
2010-10-15 06:50:32 51°15.492 2°54.03 20.2306 0.065266 0.344307 -0.687152
2010-10-15 06:50:37 51°15.505 2°54.01 20.2397 0.065266 0.344302 -0.687152
2010-10-15 06:50:42 51°15.518 2°53.991 20.2087 0.065266 0.344302 -0.687152
2010-10-15 06:50:47 51°15.53 2°53.97 20.2351 0.065266 0.344302 -0.687152
2010-10-15 06:50:52 51°15.543 2°53.95 20.2289 0.065266 0.344296 -0.687152
2010-10-15 06:50:57 51°15.556 2°53.93 20.2372 0.065266 0.344296 -0.687152
2010-10-15 06:51:02 51°15.569 2°53.91 20.2398 0.065266 0.344296 -0.687152
2010-10-15 06:51:07 51°15.582 2°53.89 19.7422 0.065266 0.344296 -0.687152
2010-10-15 06:51:12 51°15.594 2°53.869 16.8298 0.065266 0.344296 -0.687152
2010-10-15 06:51:17 51°15.607 2°53.849 16.2592 0.065266 0.344164 -0.443383
2010-10-15 06:51:22 51°15.62 2°53.829 15.6465 0.360842 2.060781 -0.58268
2010-10-15 06:51:27 51°15.633 2°53.808 15.4365 0.32955 1.866019 -0.617504
2010-10-15 06:51:32 51°15.646 2°53.789 15.2932 0.373151 2.111981 -0.373735
2010-10-15 06:51:37 51°15.658 2°53.768 15.1632 0.310362 1.747531 -0.547855
2010-10-15 06:51:42 51°15.671 2°53.748 15.1002 0.310362 1.747531 -0.547855
2010-10-15 06:51:47 51°15.684 2°53.728 15.0212 0.30713 1.752548 -0.338911
2010-10-15 06:51:52 51°15.697 2°53.708 15.0131 0.377744 2.248267 -0.164791
2010-10-15 06:51:57 51°15.709 2°53.687 14.9379 0.392144 2.392388 -0.164791
2010-10-15 06:52:02 51°15.722 2°53.667 14.9934 1.630892 11.327089 -0.095143
2010-10-15 06:52:07 51°15.734 2°53.647 14.9525 2.062557 14.87668 -0.095143
2010-10-15 06:52:12 51°15.747 2°53.627 14.9545 2.062557 14.87668 -0.095143
2010-10-15 06:52:17 51°15.759 2°53.606 14.9019 2.875088 21.641105 -0.095143
2010-10-15 06:52:22 51°15.772 2°53.587 14.9742 3.550979 27.591945 -0.095143
2010-10-15 06:52:26 51°15.782 2°53.571 14.9514 3.709887 29.14872 -0.095143
2010-10-15 06:52:32 51°15.799 2°53.549 14.932 3.785506 29.948461 -0.129967
2010-10-15 06:52:37 51°15.812 2°53.53 14.9953 3.819152 30.329391 -0.129967
2010-10-15 06:52:42 51°15.827 2°53.514 14.9289 3.819152 30.329391 -0.129967
2010-10-15 06:52:47 51°15.841 2°53.496 14.9182 3.833919 30.509923 -0.129967
2010-10-15 06:52:52 51°15.856 2°53.481 14.8767 3.833603 30.535136 -0.129967
2010-10-15 06:52:57 51°15.871 2°53.465 14.8335 3.836135 30.602661 -0.164791
2010-10-15 06:53:02 51°15.887 2°53.449 14.8044 3.835819 30.623919 -0.164791
2010-10-15 06:53:07 51°15.902 2°53.434 14.8081 3.833183 30.617532 -0.164791
2010-10-15 06:53:12 51°15.918 2°53.42 14.7841 3.833183 30.617532 -0.164791
2010-10-15 06:53:17 51°15.933 2°53.405 14.79 3.830862 30.599848 -0.129967
2010-10-15 06:53:22 51°15.95 2°53.391 14.7815 3.830862 30.609251 -0.129967
2010-10-15 06:53:27 51°15.966 2°53.376 14.7891 3.837402 30.687432 -0.164791
2010-10-15 06:53:32 51°15.982 2°53.362 14.7866 3.844891 30.770638 -0.164791
2010-10-15 06:53:37 51°15.997 2°53.347 14.7549 3.853857 30.889118 -0.129967
2010-10-15 06:53:42 51°16.014 2°53.333 14.7664 3.853857 30.889118 -0.129967
2010-10-15 06:53:47 51°16.029 2°53.319 14.7722 3.859553 30.959016 -0.129967
2010-10-15 06:53:52 51°16.046 2°53.304 14.7426 3.863245 31.019487 -0.164791
2010-10-15 06:53:57 51°16.061 2°53.29 14.7391 3.865777 31.0535 -0.164791
2010-10-15 06:54:02 51°16.077 2°53.276 14.731 3.865883 31.070039 -0.129967
2010-10-15 06:54:07 51°16.094 2°53.262 14.7136 3.865566 31.075013 -0.129967
2010-10-15 06:54:12 51°16.109 2°53.248 14.706 3.865566 31.075013 -0.129967
2010-10-15 06:54:17 51°16.125 2°53.233 14.7146 3.866094 31.086941 -0.164791
2010-10-15 06:54:22 51°16.141 2°53.219 14.7016 3.868098 31.114502 -0.164791
2010-10-15 06:54:26 51°16.154 2°53.207 14.7051 3.866727 31.11185 -0.164791
2010-10-15 06:54:32 51°16.173 2°53.189 14.6914 3.866622 31.115118 -0.164791
2010-10-15 06:54:37 51°16.189 2°53.175 14.6791 3.866833 31.132668 -0.129967
2010-10-15 06:54:42 51°16.205 2°53.161 14.6721 3.866833 31.132668 -0.129967
2010-10-15 06:54:47 51°16.221 2°53.146 14.6763 3.866728 31.140765 -0.164791
2010-10-15 06:54:52 51°16.237 2°53.131 14.6709 3.866411 31.148786 -0.199615
2010-10-15 06:54:57 51°16.254 2°53.117 14.686 3.865673 31.151216 -0.199615
2010-10-15 06:55:02 51°16.27 2°53.103 14.7037 3.864829 31.144251 -0.199615
2010-10-15 06:55:07 51°16.285 2°53.088 14.6777 3.863353 31.14066 -0.164791
2010-10-15 06:55:12 51°16.301 2°53.073 14.6856 3.863353 31.14066 -0.164791
2010-10-15 06:55:17 51°16.317 2°53.058 14.677 3.862825 31.14257 -0.199615
2010-10-15 06:55:22 51°16.334 2°53.044 14.6686 3.862615 31.146716 -0.199615
2010-10-15 06:55:27 51°16.35 2°53.029 14.6644 3.862615 31.15578 -0.199615
2010-10-15 06:55:32 51°16.366 2°53.014 14.6722 3.86367 31.170089 -0.199615
2010-10-15 06:55:37 51°16.382 2°53 14.6704 3.865041 31.181798 -0.199615
2010-10-15 06:55:42 51°16.398 2°52.985 14.6926 3.865041 31.181798 -0.199615
2010-10-15 06:55:47 51°16.415 2°52.971 14.6866 3.86599 31.189114 -0.164791
2010-10-15 06:55:52 51°16.431 2°52.957 14.6852 3.867994 31.208324 -0.129967
2010-10-15 06:55:57 51°16.447 2°52.942 14.6928 3.868205 31.215064 -0.164791
2010-10-15 06:56:02 51°16.463 2°52.928 14.7088 3.868944 31.223515 -0.164791
2010-10-15 06:56:07 51°16.478 2°52.913 14.7151 3.868522 31.226392 -0.234439
2010-10-15 06:56:12 51°16.494 2°52.898 14.7312 3.868522 31.226392 -0.234439
2010-10-15 06:56:17 51°16.51 2°52.884 14.7308 3.869155 31.232079 -0.234439
2010-10-15 06:56:22 51°16.526 2°52.87 14.7292 3.869471 31.23371 -0.164791
2010-10-15 06:56:27 51°16.542 2°52.856 14.7372 3.869366 31.229125 -0.199615
2010-10-15 06:56:32 51°16.559 2°52.843 14.7408 3.871475 31.24626 -0.199615
2010-10-15 06:56:37 51°16.575 2°52.829 14.7497 3.874956 31.276323 -0.199615
2010-10-15 06:56:42 51°16.592 2°52.817 14.7425 3.874956 31.276323 -0.199615
2010-10-15 06:56:46 51°16.605 2°52.806 14.7436 3.878964 31.306875 -0.199615
2010-10-15 06:56:52 51°16.624 2°52.792 14.7401 3.882128 31.328624 -0.234439
2010-10-15 06:56:57 51°16.641 2°52.779 14.7375 3.88371 31.335546 -0.234439
2010-10-15 06:57:02 51°16.658 2°52.767 14.7437 3.885609 31.349562 -0.199615
2010-10-15 06:57:07 51°16.675 2°52.755 14.7422 3.88793 31.365543 -0.234439
2010-10-15 06:57:12 51°16.691 2°52.743 14.7419 3.88793 31.365543 -0.234439
2010-10-15 06:57:17 51°16.707 2°52.731 14.7436 3.890883 31.389032 -0.234439
2010-10-15 06:57:22 51°16.724 2°52.719 14.7514 3.89141 31.388901 -0.269263
2010-10-15 06:57:27 51°16.741 2°52.707 14.7401 3.89352 31.408459 -0.304087
2010-10-15 06:57:32 51°16.758 2°52.695 14.7448 3.894891 31.419559 -0.269263
2010-10-15 06:57:37 51°16.775 2°52.683 14.749 3.896368 31.434653 -0.234439
2010-10-15 06:57:42 51°16.792 2°52.671 14.7563 3.896368 31.434653 -0.234439
2010-10-15 06:57:47 51°16.808 2°52.658 14.7621 3.896579 31.435329 -0.269263
2010-10-15 06:57:52 51°16.825 2°52.646 14.7579 3.897317 31.441963 -0.269263
2010-10-15 06:57:57 51°16.841 2°52.634 14.7542 3.898056 31.450426 -0.234439
2010-10-15 06:58:02 51°16.857 2°52.622 14.7621 3.896579 31.437158 -0.304087
2010-10-15 06:58:07 51°16.874 2°52.609 14.7554 3.897423 31.442301 -0.269263
2010-10-15 06:58:12 51°16.891 2°52.597 14.7511 3.897423 31.442301 -0.269263
2010-10-15 06:58:17 51°16.908 2°52.584 14.7539 3.89795 31.447649 -0.269263
2010-10-15 06:58:22 51°16.924 2°52.572 14.7528 3.897423 31.441082 -0.269263
2010-10-15 06:58:27 51°16.941 2°52.56 14.7572 3.897739 31.440877 -0.234439
2010-10-15 06:58:32 51°16.958 2°52.548 14.7574 3.898267 31.443177 -0.269263
2010-10-15 06:58:37 51°16.974 2°52.535 14.7669 3.89795 31.440335 -0.269263
2010-10-15 06:58:42 51°16.991 2°52.522 14.7696 3.89795 31.440335 -0.269263
2010-10-15 06:58:46 51°17.004 2°52.513 14.7698 3.899216 31.452314 -0.234439
2010-10-15 06:58:52 51°17.024 2°52.497 14.7711 3.900271 31.463009 -0.234439
2010-10-15 06:58:57 51°17.041 2°52.485 14.77 3.900798 31.467137 -0.269263
2010-10-15 06:59:02 51°17.058 2°52.472 14.7647 3.901115 31.46998 -0.234439
2010-10-15 06:59:06 51°17.071 2°52.462 14.7622 3.901431 31.474653 -0.269263
2010-10-15 06:59:12 51°17.092 2°52.447 14.7644 3.901431 31.474653 -0.269263
2010-10-15 06:59:17 51°17.108 2°52.434 14.7719 3.901115 31.47242 -0.269263
2010-10-15 06:59:22 51°17.125 2°52.422 14.7778 3.901642 31.471668 -0.269263
2010-10-15 06:59:27 51°17.142 2°52.41 14.7904 3.901536 31.468891 -0.234439
2010-10-15 06:59:32 51°17.159 2°52.397 14.7879 3.902275 31.474914 -0.199615
2010-10-15 06:59:37 51°17.176 2°52.385 14.7884 3.90238 31.475251 -0.199615
2010-10-15 06:59:42 51°17.192 2°52.372 14.7914 3.90238 31.475251 -0.199615
2010-10-15 06:59:47 51°17.209 2°52.36 14.7807 3.902697 31.481144 -0.199615
2010-10-15 06:59:52 51°17.226 2°52.347 14.7806 3.903963 31.492515 -0.199615
2010-10-15 06:59:57 51°17.242 2°52.334 14.7866 3.903857 31.489126 -0.199615
2010-10-15 07:00:02 51°17.259 2°52.322 14.7958 3.903962 31.487633 -0.234439
2010-10-15 07:00:07 51°17.277 2°52.31 14.7931 3.904068 31.48492 -0.199615
2010-10-15 07:00:12 51°17.293 2°52.297 14.7876 3.904068 31.48492 -0.199615
2010-10-15 07:00:17 51°17.31 2°52.284 14.7898 3.904595 31.485997 -0.234439
2010-10-15 07:00:22 51°17.327 2°52.271 14.7872 3.905334 31.488968 -0.199615
2010-10-15 07:00:27 51°17.344 2°52.258 14.7904 3.906072 31.498039 -0.199615
2010-10-15 07:00:32 51°17.36 2°52.245 14.7924 3.907338 31.510018 -0.234439
2010-10-15 07:00:37 51°17.377 2°52.232 14.7939 3.907549 31.511302 -0.164791
2010-10-15 07:00:42 51°17.394 2°52.219 14.7987 3.907549 31.511302 -0.164791
2010-10-15 07:00:47 51°17.411 2°52.206 14.8042 3.907338 31.506966 -0.199615
2010-10-15 07:00:52 51°17.428 2°52.193 14.8069 3.907654 31.507977 -0.199615
2010-10-15 07:00:57 51°17.445 2°52.18 14.807 3.909026 31.521512 -0.234439
2010-10-15 07:01:02 51°17.461 2°52.167 14.8132 3.910291 31.533491 -0.199615
2010-10-15 07:01:06 51°17.475 2°52.157 14.8073 3.911768 31.547367 -0.199615
2010-10-15 07:01:12 51°17.495 2°52.142 14.8105 3.911768 31.547367 -0.199615
2010-10-15 07:01:17 51°17.512 2°52.128 14.8167 3.913139 31.55785 -0.234439
2010-10-15 07:01:22 51°17.529 2°52.116 14.8173 3.913878 31.562037 -0.234439
2010-10-15 07:01:27 51°17.545 2°52.103 14.8121 3.914722 31.567172 -0.199615
2010-10-15 07:01:32 51°17.562 2°52.09 14.8167 3.914827 31.565674 -0.199615
2010-10-15 07:01:37 51°17.579 2°52.077 14.8188 3.915143 31.566682 -0.164791
2010-10-15 07:01:42 51°17.595 2°52.064 14.8164 3.915143 31.566682 -0.164791
2010-10-15 07:01:47 51°17.612 2°52.051 14.8198 3.914827 31.560785 -0.199615
2010-10-15 07:01:52 51°17.629 2°52.038 14.8253 3.915882 31.570257 -0.199615
2010-10-15 07:01:57 51°17.646 2°52.026 14.8229 3.916198 31.571265 -0.234439
2010-10-15 07:02:02 51°17.662 2°52.013 14.8261 3.91662 31.573831 -0.234439
2010-10-15 07:02:07 51°17.679 2°51.999 14.8264 3.916409 31.570103 -0.199615
2010-10-15 07:02:12 51°17.696 2°51.987 14.828 3.916409 31.570103 -0.199615
2010-10-15 07:02:17 51°17.713 2°51.974 14.8308 3.917991 31.58431 -0.199615
2010-10-15 07:02:22 51°17.729 2°51.961 14.8359 3.918519 31.588434 -0.199615
2010-10-15 07:02:27 51°17.746 2°51.948 14.8364 3.919257 31.593841 -0.199615
2010-10-15 07:02:32 51°17.763 2°51.935 14.8332 3.919679 31.595795 -0.164791
2010-10-15 07:02:37 51°17.779 2°51.922 14.8332 3.921367 31.609726 -0.164791
2010-10-15 07:02:42 51°17.796 2°51.909 14.8394 3.921367 31.609726 -0.164791
2010-10-15 07:02:47 51°17.812 2°51.897 14.8474 3.921894 31.61385 -0.164791
2010-10-15 07:02:52 51°17.829 2°51.884 14.8416 3.923371 31.625274 -0.199615
2010-10-15 07:02:57 51°17.846 2°51.871 14.8445 3.925692 31.644887 -0.199615
2010-10-15 07:03:02 51°17.862 2°51.858 14.8463 3.92527 31.638037 -0.199615
2010-10-15 07:03:06 51°17.875 2°51.848 14.8436 3.926219 31.644112 -0.234439
2010-10-15 07:03:12 51°17.895 2°51.832 14.8414 3.926219 31.644112 -0.234439
2010-10-15 07:03:17 51°17.912 2°51.82 14.8451 3.928118 31.661772 -0.269263
2010-10-15 07:03:22 51°17.929 2°51.807 14.848 3.928856 31.666564 -0.199615
2010-10-15 07:03:27 51°17.945 2°51.794 14.854 3.929806 31.673863 -0.199615
2010-10-15 07:03:32 51°17.962 2°51.781 14.861 3.930649 31.678376 -0.164791
2010-10-15 07:03:37 51°17.979 2°51.768 14.8544 3.931282 31.684058 -0.234439
2010-10-15 07:03:42 51°17.995 2°51.756 14.852 3.931282 31.684058 -0.234439
2010-10-15 07:03:47 51°18.012 2°51.743 14.8527 3.932021 31.689462 -0.199615
2010-10-15 07:03:52 51°18.029 2°51.729 14.8521 3.932548 31.694197 -0.234439
2010-10-15 07:03:57 51°18.045 2°51.717 14.8518 3.932759 31.695478 -0.199615
2010-10-15 07:04:02 51°18.062 2°51.704 14.8529 3.93297 31.696759 -0.234439
2010-10-15 07:04:07 51°18.079 2°51.69 14.8531 3.933392 31.696869 -0.234439
2010-10-15 07:04:12 51°18.095 2°51.677 14.8568 3.933392 31.696869 -0.234439
2010-10-15 07:04:17 51°18.112 2°51.664 14.8557 3.934025 31.699486 -0.199615
2010-10-15 07:04:22 51°18.128 2°51.651 14.8487 3.934236 31.702606 -0.234439
2010-10-15 07:04:27 51°18.145 2°51.638 14.843 3.934763 31.706727 -0.199615
2010-10-15 07:04:32 51°18.161 2°51.626 14.8443 3.934869 31.710127 -0.234439
2010-10-15 07:04:37 51°18.177 2°51.612 14.8467 3.93624 31.721212 -0.199615
2010-10-15 07:04:42 51°18.194 2°51.599 14.8395 3.93624 31.721212 -0.199615
2010-10-15 07:04:47 51°18.211 2°51.586 14.8396 3.935396 31.713022 -0.234439
2010-10-15 07:04:52 51°18.227 2°51.573 14.8412 3.935818 31.71681 -0.234439
2010-10-15 07:04:57 51°18.244 2°51.56 14.8347 3.935502 31.712743 -0.234439
2010-10-15 07:05:02 51°18.26 2°51.547 14.8326 3.934341 31.706618 -0.234439
2010-10-15 07:05:07 51°18.276 2°51.534 14.8293 3.934341 31.707845 -0.199615
2010-10-15 07:05:12 51°18.293 2°51.52 14.8299 3.934341 31.707845 -0.199615
2010-10-15 07:05:17 51°18.31 2°51.508 14.828 3.933392 31.702387 -0.199615
2010-10-15 07:05:22 51°18.327 2°51.495 14.828 3.932865 31.697651 -0.199615
2010-10-15 07:05:26 51°18.341 2°51.485 14.8293 3.931599 31.688738 -0.199615
2010-10-15 07:05:32 51°18.361 2°51.469 14.8271 3.931493 31.688404 -0.199615
2010-10-15 07:05:37 51°18.378 2°51.456 14.822 3.930755 31.683 -0.234439
2010-10-15 07:05:42 51°18.394 2°51.443 14.8171 3.930755 31.683 -0.234439
2010-10-15 07:05:47 51°18.411 2°51.43 14.8215 3.930017 31.678821 -0.199615
2010-10-15 07:05:52 51°18.427 2°51.417 14.8187 3.929384 31.673138 -0.199615
2010-10-15 07:05:57 51°18.444 2°51.404 14.8268 3.927907 31.664166 -0.234439
2010-10-15 07:06:02 51°18.46 2°51.39 14.8283 3.927063 31.657201 -0.164791
2010-10-15 07:06:07 51°18.477 2°51.377 14.8262 3.926536 31.65369 -0.199615
2010-10-15 07:06:12 51°18.493 2°51.364 14.8213 3.926536 31.65369 -0.199615
2010-10-15 07:06:17 51°18.51 2°51.351 14.8192 3.92432 31.634411 -0.199615
2010-10-15 07:06:22 51°18.526 2°51.338 14.8211 3.924215 31.634688 -0.234439
2010-10-15 07:06:27 51°18.543 2°51.325 14.8228 3.924426 31.639032 -0.234439
2010-10-15 07:06:32 51°18.56 2°51.313 14.8251 3.924004 31.636467 -0.234439
2010-10-15 07:06:37 51°18.577 2°51.3 14.8217 3.923793 31.632736 -0.199615
2010-10-15 07:06:42 51°18.593 2°51.287 14.8268 3.923793 31.632736 -0.199615
2010-10-15 07:06:47 51°18.61 2°51.273 14.8282 3.92316 31.625828 -0.199615
2010-10-15 07:06:52 51°18.627 2°51.261 14.8315 3.923793 31.63396 -0.199615
2010-10-15 07:06:57 51°18.644 2°51.248 14.8305 3.923688 31.633625 -0.164791
2010-10-15 07:07:02 51°18.66 2°51.235 14.837 3.923477 31.63173 -0.199615
2010-10-15 07:07:07 51°18.677 2°51.222 14.835 3.92316 31.629501 -0.234439
2010-10-15 07:07:12 51°18.694 2°51.209 14.8361 3.92316 31.629501 -0.234439
2010-10-15 07:07:17 51°18.711 2°51.196 14.8367 3.923688 31.633013 -0.199615
2010-10-15 07:07:22 51°18.727 2°51.183 14.8427 3.922844 31.626047 -0.199615
2010-10-15 07:07:27 51°18.744 2°51.17 14.8424 3.924848 31.641596 -0.234439
2010-10-15 07:07:32 51°18.76 2°51.157 14.8472 3.925164 31.643825 -0.199615
2010-10-15 07:07:37 51°18.777 2°51.144 14.8495 3.92527 31.643548 -0.199615
2010-10-15 07:07:42 51°18.794 2°51.131 14.8535 3.92527 31.643548 -0.199615
2010-10-15 07:07:47 51°18.81 2°51.118 14.8543 3.925903 31.648619 -0.234439
2010-10-15 07:07:52 51°18.827 2°51.105 14.8585 3.926641 31.654025 -0.234439
2010-10-15 07:07:57 51°18.844 2°51.092 14.8551 3.928012 31.663888 -0.269263
2010-10-15 07:08:02 51°18.86 2°51.079 14.859 3.928223 31.66517 -0.234439
2010-10-15 07:08:07 51°18.877 2°51.066 14.8651 3.930439 31.683223 -0.234439
2010-10-15 07:08:12 51°18.893 2°51.052 14.8633 3.930439 31.683223 -0.234439
2010-10-15 07:08:17 51°18.91 2°51.039 14.8669 3.929806 31.674476 -0.269263
2010-10-15 07:08:22 51°18.927 2°51.026 14.867 3.930333 31.677373 -0.234439
2010-10-15 07:08:27 51°18.943 2°51.013 14.8711 3.931493 31.685952 -0.269263
2010-10-15 07:08:32 51°18.959 2°50.999 14.8708 3.932232 31.690743 -0.234439
2010-10-15 07:08:37 51°18.976 2°50.986 14.873 3.933287 31.698374 -0.269263
2010-10-15 07:08:42 51°18.992 2°50.973 14.8801 3.933287 31.698374 -0.269263
2010-10-15 07:08:47 51°19.009 2°50.96 14.8822 3.934025 31.703164 -0.304087
2010-10-15 07:08:52 51°19.025 2°50.947 14.8845 3.934552 31.705446 -0.304087
2010-10-15 07:08:57 51°19.042 2°50.934 14.8806 3.935713 31.714023 -0.269263
2010-10-15 07:09:02 51°19.059 2°50.92 14.8819 3.936557 31.720372 -0.269263
2010-10-15 07:09:07 51°19.075 2°50.907 14.8866 3.936978 31.722933 -0.269263
2010-10-15 07:09:12 51°19.092 2°50.894 14.8849 3.936978 31.722933 -0.269263
2010-10-15 07:09:17 51°19.108 2°50.881 14.8896 3.937928 31.728389 -0.269263
2010-10-15 07:09:22 51°19.125 2°50.868 14.889 3.938033 31.727495 -0.269263
2010-10-15 07:09:27 51°19.142 2°50.855 14.8886 3.938666 31.729496 -0.304087
2010-10-15 07:09:32 51°19.159 2°50.842 14.8884 3.93951 31.73523 -0.304087
2010-10-15 07:09:37 51°19.175 2°50.828 14.8894 3.93951 31.734003 -0.304087
2010-10-15 07:09:42 51°19.192 2°50.815 14.8924 3.93951 31.734003 -0.304087
2010-10-15 07:09:47 51°19.209 2°50.802 14.8953 3.94067 31.744417 -0.269263
2010-10-15 07:09:52 51°19.226 2°50.789 14.8961 3.942991 31.76279 -0.304087
2010-10-15 07:09:57 51°19.242 2°50.776 14.8933 3.941936 31.752709 -0.269263
2010-10-15 07:10:02 51°19.259 2°50.763 14.8919 3.942042 31.752428 -0.304087
2010-10-15 07:10:07 51°19.276 2°50.75 14.8928 3.943413 31.763508 -0.304087
2010-10-15 07:10:12 51°19.292 2°50.736 14.8913 3.943413 31.763508 -0.304087
2010-10-15 07:10:17 51°19.309 2°50.724 14.8955 3.943518 31.765068 -0.304087
2010-10-15 07:10:22 51°19.325 2°50.71 14.8983 3.943413 31.761666 -0.338911
2010-10-15 07:10:27 51°19.342 2°50.697 14.8951 3.94394 31.765172 -0.304087
2010-10-15 07:10:32 51°19.358 2°50.684 14.8918 3.944257 31.767398 -0.338911
2010-10-15 07:10:37 51°19.374 2°50.67 14.8928 3.944151 31.765224 -0.304087
2010-10-15 07:10:42 51°19.391 2°50.657 14.8978 3.944151 31.765224 -0.304087
2010-10-15 07:10:47 51°19.407 2°50.644 14.9047 3.945628 31.77909 -0.338911
2010-10-15 07:10:52 51°19.424 2°50.631 14.9096 3.946156 31.783823 -0.304087
2010-10-15 07:10:57 51°19.44 2°50.618 14.9127 3.946261 31.784156 -0.338911
2010-10-15 07:11:02 51°19.457 2°50.604 14.9242 3.94721 31.791447 -0.338911
2010-10-15 07:11:07 51°19.473 2°50.591 14.9311 3.948054 31.800249 -0.338911
2010-10-15 07:11:12 51°19.49 2°50.578 14.9386 3.948054 31.800249 -0.338911
2010-10-15 07:11:17 51°19.506 2°50.565 14.9483 3.949848 31.816344 -0.373735
2010-10-15 07:11:22 51°19.523 2°50.552 14.9541 3.951535 31.830262 -0.338911
2010-10-15 07:11:27 51°19.539 2°50.539 14.9633 3.953329 31.845128 -0.338911
2010-10-15 07:11:32 51°19.556 2°50.525 14.9675 3.955333 31.860657 -0.338911
2010-10-15 07:11:37 51°19.572 2°50.512 14.9719 3.957337 31.87249 -0.338911
2010-10-15 07:11:42 51°19.588 2°50.499 14.98 3.957337 31.87249 -0.338911
2010-10-15 07:11:47 51°19.604 2°50.485 14.985 3.96124 31.901361 -0.338911
2010-10-15 07:11:52 51°19.621 2°50.471 14.9917 3.964405 31.924832 -0.338911
2010-10-15 07:11:57 51°19.637 2°50.458 14.9932 3.967781 31.94711 -0.408559
2010-10-15 07:12:02 51°19.653 2°50.444 14.9994 3.970101 31.96115 -0.373735
2010-10-15 07:12:06 51°19.667 2°50.433 15.0049 3.973266 31.983374 -0.338911
2010-10-15 07:12:12 51°19.686 2°50.417 15.0153 3.973266 31.983374 -0.338911
2010-10-15 07:12:17 51°19.702 2°50.403 15.0219 3.975692 31.998969 -0.373735
2010-10-15 07:12:22 51°19.718 2°50.39 15.0237 3.978751 32.020855 -0.408559
2010-10-15 07:12:27 51°19.734 2°50.377 15.0274 3.980123 32.028833 -0.373735
2010-10-15 07:12:32 51°19.751 2°50.363 15.0327 3.983393 32.051987 -0.373735
2010-10-15 07:12:37 51°19.767 2°50.35 15.0353 3.984975 32.061234 -0.373735
2010-10-15 07:12:42 51°19.783 2°50.337 15.039 3.984975 32.061234 -0.373735
2010-10-15 07:12:46 51°19.796 2°50.326 15.0409 3.987401 32.07743 -0.373735
2010-10-15 07:12:52 51°19.815 2°50.31 15.0435 3.990566 32.09777 -0.373735
2010-10-15 07:12:57 51°19.832 2°50.297 15.0447 3.991727 32.105082 -0.373735
2010-10-15 07:13:02 51°19.848 2°50.283 15.0456 3.993836 32.11905 -0.408559
2010-10-15 07:13:07 51°19.865 2°50.271 15.0446 3.995735 32.129885 -0.373735
2010-10-15 07:13:12 51°19.881 2°50.256 15.0454 3.995735 32.129885 -0.373735
2010-10-15 07:13:17 51°19.898 2°50.244 15.0476 3.997634 32.141337 -0.408559
2010-10-15 07:13:22 51°19.914 2°50.23 15.0499 3.998794 32.149263 -0.408559
2010-10-15 07:13:27 51°19.93 2°50.217 15.0504 3.9989 32.147733 -0.408559
2010-10-15 07:13:32 51°19.947 2°50.203 15.0493 4.00006 32.15442 -0.373735
2010-10-15 07:13:37 51°19.963 2°50.19 15.0536 4.001326 32.163907 -0.373735
2010-10-15 07:13:42 51°19.979 2°50.176 15.0541 4.001326 32.163907 -0.373735
2010-10-15 07:13:47 51°19.996 2°50.163 15.0551 4.001959 32.167103 -0.408559
2010-10-15 07:13:52 51°20.012 2°50.15 15.0537 4.002803 32.174047 -0.408559
2010-10-15 07:13:57 51°20.029 2°50.137 15.06 4.003225 32.17659 -0.408559
2010-10-15 07:14:02 51°20.045 2°50.124 15.0576 4.003541 32.179426 -0.408559
2010-10-15 07:14:07 51°20.062 2°50.11 15.0641 4.003752 32.180078 -0.373735
2010-10-15 07:14:12 51°20.079 2°50.097 15.0612 4.003752 32.180078 -0.373735
2010-10-15 07:14:17 51°20.095 2°50.084 15.0595 4.004385 32.183273 -0.373735
2010-10-15 07:14:22 51°20.111 2°50.071 15.0624 4.00544 32.190868 -0.373735
2010-10-15 07:14:27 51°20.128 2°50.058 15.0651 4.004702 32.183632 -0.408559
2010-10-15 07:14:32 51°20.145 2°50.045 15.0681 4.004807 32.18272 -0.408559
2010-10-15 07:14:37 51°20.161 2°50.032 15.0664 4.005124 32.184936 -0.408559
2010-10-15 07:14:42 51°20.177 2°50.018 15.0699 4.005124 32.184936 -0.408559
2010-10-15 07:14:46 51°20.19 2°50.008 15.0703 4.005546 32.187479 -0.408559
2010-10-15 07:14:52 51°20.21 2°49.993 15.0695 4.005968 32.189402 -0.373735
2010-10-15 07:14:57 51°20.227 2°49.98 15.0661 4.005862 32.187218 -0.373735
2010-10-15 07:15:02 51°20.243 2°49.967 15.0644 4.007023 32.196375 -0.408559
2010-10-15 07:15:07 51°20.259 2°49.953 15.0652 4.006706 32.192921 -0.408559
2010-10-15 07:15:12 51°20.276 2°49.941 15.0672 4.006706 32.192921 -0.408559
2010-10-15 07:15:17 51°20.292 2°49.929 15.0709 4.00755 32.198624 -0.408559
2010-10-15 07:15:22 51°20.307 2°49.916 15.0737 4.008605 32.206216 -0.408559
2010-10-15 07:15:27 51°20.323 2°49.902 15.0723 4.009027 32.208138 -0.373735
2010-10-15 07:15:32 51°20.339 2°49.889 15.0756 4.009554 32.212862 -0.408559
2010-10-15 07:15:37 51°20.355 2°49.877 15.0747 4.009765 32.214752 -0.443383
2010-10-15 07:15:42 51°20.372 2°49.864 15.0776 4.009765 32.214752 -0.443383
2010-10-15 07:15:47 51°20.388 2°49.851 15.0784 4.010082 32.218207 -0.408559
2010-10-15 07:15:52 51°20.405 2°49.838 15.0751 4.009976 32.217881 -0.408559
2010-10-15 07:15:57 51°20.421 2°49.825 15.0797 4.010609 32.222312 -0.408559
2010-10-15 07:16:02 51°20.438 2°49.812 15.0739 4.011031 32.225473 -0.443383
2010-10-15 07:16:07 51°20.455 2°49.799 15.0697 4.011981 32.232738 -0.443383
2010-10-15 07:16:12 51°20.471 2°49.786 15.0648 4.011981 32.232738 -0.443383
2010-10-15 07:16:17 51°20.487 2°49.773 15.0638 4.011664 32.229284 -0.443383
2010-10-15 07:16:22 51°20.503 2°49.76 15.0581 4.012719 32.237494 -0.408559
2010-10-15 07:16:27 51°20.52 2°49.747 15.0578 4.01293 32.238144 -0.408559
2010-10-15 07:16:32 51°20.537 2°49.734 15.054 4.013352 32.240684 -0.408559
2010-10-15 07:16:37 51°20.554 2°49.722 15.0549 4.013141 32.238794 -0.443383
2010-10-15 07:16:42 51°20.57 2°49.708 15.0558 4.013141 32.238794 -0.443383
2010-10-15 07:16:46 51°20.583 2°49.698 15.0588 4.013563 32.242574 -0.408559
2010-10-15 07:16:52 51°20.603 2°49.682 15.0528 4.013563 32.245674 -0.443383
2010-10-15 07:16:57 51°20.62 2°49.669 15.0535 4.013141 32.243753 -0.408559
2010-10-15 07:17:02 51°20.636 2°49.656 15.053 4.012614 32.242748 -0.373735
2010-10-15 07:17:07 51°20.652 2°49.643 15.0495 4.01177 32.237667 -0.408559
2010-10-15 07:17:12 51°20.669 2°49.629 15.048 4.01177 32.237667 -0.408559
2010-10-15 07:17:17 51°20.685 2°49.617 15.0482 4.011032 32.23291 -0.408559
2010-10-15 07:17:22 51°20.701 2°49.603 15.0469 4.010082 32.225643 -0.408559
2010-10-15 07:17:27 51°20.718 2°49.59 15.0469 4.010926 32.233205 -0.408559
2010-10-15 07:17:32 51°20.734 2°49.577 15.048 4.009977 32.223458 -0.373735
2010-10-15 07:17:37 51°20.751 2°49.564 15.0464 4.010082 32.228742 -0.408559
2010-10-15 07:17:42 51°20.768 2°49.551 15.0488 4.010082 32.228742 -0.408559
2010-10-15 07:17:47 51°20.784 2°49.538 15.0491 4.00966 32.225581 -0.373735
2010-10-15 07:17:52 51°20.8 2°49.524 15.054 4.009871 32.229332 -0.443383
2010-10-15 07:17:57 51°20.816 2°49.511 15.0504 4.008605 32.218607 -0.408559
2010-10-15 07:18:02 51°20.833 2°49.498 15.0506 4.009555 32.227116 -0.408559
2010-10-15 07:18:07 51°20.849 2°49.484 15.047 4.009977 32.232758 -0.408559
2010-10-15 07:18:12 51°20.866 2°49.47 15.0478 4.009977 32.232758 -0.408559
2010-10-15 07:18:17 51°20.883 2°49.457 15.0464 4.009871 32.231812 -0.408559
2010-10-15 07:18:22 51°20.899 2°49.443 15.0466 4.010188 32.234028 -0.443383
2010-10-15 07:18:27 51°20.916 2°49.431 15.046 4.010293 32.235594 -0.408559
2010-10-15 07:18:32 51°20.933 2°49.418 15.0499 4.010082 32.232463 -0.408559
2010-10-15 07:18:37 51°20.949 2°49.405 15.0461 4.00966 32.228681 -0.373735
2010-10-15 07:18:42 51°20.967 2°49.395 15.0473 4.00966 32.228681 -0.373735
2010-10-15 07:18:47 51°20.984 2°49.383 15.0521 4.010715 32.237515 -0.408559
2010-10-15 07:18:52 51°21.002 2°49.374 15.052 4.010188 32.232788 -0.373735
2010-10-15 07:18:57 51°21.019 2°49.364 15.0545 4.010926 32.241267 -0.408559
2010-10-15 07:19:02 51°21.037 2°49.355 15.0592 4.010504 32.236865 -0.373735
2010-10-15 07:19:07 51°21.055 2°49.345 15.0521 4.010188 32.235269 -0.408559
2010-10-15 07:19:12 51°21.073 2°49.338 15.0517 4.010188 32.235269 -0.408559
2010-10-15 07:19:17 51°21.09 2°49.329 15.0494 4.009766 32.230247 -0.408559
2010-10-15 07:19:22 51°21.109 2°49.321 15.0484 4.009871 32.233052 -0.408559
2010-10-15 07:19:26 51°21.123 2°49.314 15.0457 4.010926 32.240647 -0.408559
2010-10-15 07:19:32 51°21.145 2°49.304 15.0404 4.010715 32.237515 -0.443383
2010-10-15 07:19:37 51°21.163 2°49.296 15.0414 4.01177 32.245109 -0.408559
2010-10-15 07:19:42 51°21.182 2°49.287 15.0402 4.01177 32.245109 -0.408559
2010-10-15 07:19:47 51°21.2 2°49.279 15.0402 4.011243 32.239761 -0.443383
2010-10-15 07:19:52 51°21.218 2°49.271 15.0362 4.011981 32.246379 -0.373735
2010-10-15 07:19:57 51°21.237 2°49.263 15.0342 4.011981 32.24824 -0.408559
2010-10-15 07:20:02 51°21.255 2°49.256 15.0349 4.011348 32.243808 -0.408559
2010-10-15 07:20:07 51°21.273 2°49.247 15.032 4.011137 32.243778 -0.408559
2010-10-15 07:20:12 51°21.291 2°49.239 15.0355 4.011137 32.243778 -0.408559
2010-10-15 07:20:17 51°21.309 2°49.23 15.0344 4.010715 32.241857 -0.408559
2010-10-15 07:20:22 51°21.327 2°49.222 15.028 4.010821 32.244664 -0.373735
2010-10-15 07:20:27 51°21.345 2°49.213 15.0262 4.011032 32.247796 -0.373735
2010-10-15 07:20:32 51°21.363 2°49.203 15.0287 4.010399 32.241502 -0.408559
2010-10-15 07:20:37 51°21.38 2°49.191 15.026 4.009027 32.236654 -0.408559
2010-10-15 07:20:42 51°21.398 2°49.18 15.0214 4.009766 32.240792 -0.408559
2010-10-15 07:20:47 51°21.414 2°49.167 15.0216 4.009766 32.240792 -0.408559
2010-10-15 07:20:52 51°21.432 2°49.154 15.0195 4.009555 32.239521 -0.373735
2010-10-15 07:20:57 51°21.447 2°49.139 15.0185 4.008816 32.233521 -0.373735
2010-10-15 07:21:02 51°21.463 2°49.124 15.0135 4.008394 32.23222 -0.373735
2010-10-15 07:21:07 51°21.479 2°49.107 15.015 4.008394 32.234081 -0.373735
2010-10-15 07:21:12 51°21.494 2°49.091 15.0152 4.008394 32.234081 -0.373735
2010-10-15 07:21:17 51°21.509 2°49.074 15.017 4.007973 32.230918 -0.373735
2010-10-15 07:21:22 51°21.523 2°49.056 15.0183 4.007973 32.23278 -0.408559
2010-10-15 07:21:26 51°21.535 2°49.042 15.0164 4.007234 32.226779 -0.373735
2010-10-15 07:21:32 51°21.552 2°49.021 15.0165 4.00639 32.223555 -0.443383
2010-10-15 07:21:37 51°21.567 2°49.004 15.0168 4.007023 32.231093 -0.373735
2010-10-15 07:21:42 51°21.581 2°48.986 15.0134 4.007023 32.231093 -0.373735
2010-10-15 07:21:47 51°21.595 2°48.968 15.0122 4.006496 32.226983 -0.373735